Observation data for Hefner on 11/21/2020      Previous  Date       Current Mesonet Observations  Soil Data  Daily Summary Page  Observations in Plain Language
KHE1 210600Z 03007KT 13/09 A3027 RMK A01 T01290085  RH  075%=      5-min Rain = 0
KHE1 210601Z 03007KT 13/09 A3027 RMK A01 T01290085  RH  075%=      5-min Rain = 0
KHE1 210602Z 03007KT 13/09 A3027 RMK A01 T01290086  RH  075%=      5-min Rain = 0
KHE1 210603Z 03007KT 13/09 A3027 RMK A01 T01290086  RH  075%=      5-min Rain = 0
KHE1 210604Z 03007KT 13/09 A3027 RMK A01 T01290087  RH  076%=      5-min Rain = 0
KHE1 210605Z 03006KT 13/09 A3027 RMK A01 T01300088  RH  076%=      5-min Rain = 0
KHE1 210606Z 03007KT 13/09 A3027 RMK A01 T01310089  RH  076%=      5-min Rain = 0
KHE1 210607Z 03006KT 13/09 A3027 RMK A01 T01320089  RH  075%=      5-min Rain = 0
KHE1 210608Z 04006KT 13/09 A3027 RMK A01 T01320089  RH  075%=      5-min Rain = 0
KHE1 210609Z 03006KT 13/09 A3027 RMK A01 T01320089  RH  075%=      5-min Rain = 0
KHE1 210610Z 03007KT 13/09 A3027 RMK A01 T01320089  RH  075%=      5-min Rain = 0
KHE1 210611Z 03007KT 13/09 A3027 RMK A01 T01320090  RH  076%=      5-min Rain = 0
KHE1 210612Z 03007KT 13/09 A3027 RMK A01 T01310089  RH  076%=      5-min Rain = 0
KHE1 210613Z 03007KT 13/09 A3027 RMK A01 T01310090  RH  076%=      5-min Rain = 0
KHE1 210614Z 03007KT 13/09 A3027 RMK A01 T01320090  RH  076%=      5-min Rain = 0
KHE1 210615Z 03007KT 13/09 A3027 RMK A01 T01320091  RH  076%=      5-min Rain = 0
KHE1 210616Z 03007KT 13/09 A3026 RMK A01 T01320091  RH  076%=      5-min Rain = 0
KHE1 210617Z 03006KT 13/09 A3026 RMK A01 T01320091  RH  076%=      5-min Rain = 0
KHE1 210618Z 03006KT 13/09 A3026 RMK A01 T01320091  RH  076%=      5-min Rain = 0
KHE1 210619Z 03006KT 13/09 A3026 RMK A01 T01310091  RH  076%=      5-min Rain = 0
KHE1 210620Z 03006KT 13/09 A3026 RMK A01 T01310091  RH  076%=      5-min Rain = 0
KHE1 210621Z 03006KT 13/09 A3026 RMK A01 T01310091  RH  077%=      5-min Rain = 0
KHE1 210622Z 04006KT 13/09 A3026 RMK A01 T01300090  RH  077%=      5-min Rain = 0
KHE1 210623Z 04006KT 13/09 A3026 RMK A01 T01300090  RH  077%=      5-min Rain = 0
KHE1 210624Z 04006KT 13/09 A3026 RMK A01 T01300090  RH  077%=      5-min Rain = 0
KHE1 210625Z 04007KT 13/09 A3026 RMK A01 T01300090  RH  077%=      5-min Rain = 0
KHE1 210626Z 04007KT 13/09 A3026 RMK A01 T01290090  RH  077%=      5-min Rain = 0
KHE1 210627Z 04006KT 13/09 A3026 RMK A01 T01290090  RH  077%=      5-min Rain = 0
KHE1 210628Z 04006KT 13/09 A3026 RMK A01 T01290091  RH  077%=      5-min Rain = 0
KHE1 210629Z 04007KT 13/09 A3026 RMK A01 T01300091  RH  077%=      5-min Rain = 0
KHE1 210630Z 04007KT 13/09 A3026 RMK A01 T01300091  RH  077%=      5-min Rain = 0
KHE1 210631Z 04007KT 13/09 A3026 RMK A01 T01300092  RH  078%=      5-min Rain = 0
KHE1 210632Z 04008KT 13/09 A3026 RMK A01 T01310093  RH  078%=      5-min Rain = 0
KHE1 210633Z 03008KT 13/09 A3026 RMK A01 T01320094  RH  077%=      5-min Rain = 0
KHE1 210634Z 04008KT 13/09 A3026 RMK A01 T01330094  RH  077%=      5-min Rain = 0
KHE1 210635Z 04008KT 13/09 A3026 RMK A01 T01330094  RH  077%=      5-min Rain = 0
KHE1 210636Z 04008KT 13/09 A3026 RMK A01 T01330094  RH  077%=      5-min Rain = 0
KHE1 210637Z 04008KT 13/09 A3026 RMK A01 T01330094  RH  077%=      5-min Rain = 0
KHE1 210638Z 04008KT 13/09 A3026 RMK A01 T01330094  RH  077%=      5-min Rain = 0
KHE1 210639Z 03008KT 13/09 A3026 RMK A01 T01330094  RH  077%=      5-min Rain = 0
KHE1 210640Z 03008KT 13/09 A3026 RMK A01 T01330094  RH  077%=      5-min Rain = 0
KHE1 210641Z 03008KT 13/09 A3026 RMK A01 T01330094  RH  077%=      5-min Rain = 0
KHE1 210642Z 03007KT 13/09 A3026 RMK A01 T01330094  RH  077%=      5-min Rain = 0
KHE1 210643Z 04008KT 13/09 A3026 RMK A01 T01330094  RH  077%=      5-min Rain = 0
KHE1 210644Z 03007KT 13/09 A3026 RMK A01 T01330094  RH  077%=      5-min Rain = 0
KHE1 210645Z 03007KT 13/09 A3026 RMK A01 T01320094  RH  077%=      5-min Rain = 0
KHE1 210646Z 03007KT 13/09 A3026 RMK A01 T01320094  RH  077%=      5-min Rain = 0
KHE1 210647Z 03007KT 13/09 A3026 RMK A01 T01320093  RH  077%=      5-min Rain = 0
KHE1 210648Z 03007KT 13/09 A3026 RMK A01 T01310093  RH  078%=      5-min Rain = 0
KHE1 210649Z 03007KT 13/09 A3026 RMK A01 T01310094  RH  078%=      5-min Rain = 0
KHE1 210650Z 03007KT 13/09 A3026 RMK A01 T01300093  RH  078%=      5-min Rain = 0
KHE1 210651Z 03007KT 13/09 A3026 RMK A01 T01290093  RH  078%=      5-min Rain = 0
KHE1 210652Z 02007KT 13/09 A3026 RMK A01 T01290092  RH  079%=      5-min Rain = 0
KHE1 210653Z 02007KT 13/09 A3026 RMK A01 T01280092  RH  079%=      5-min Rain = 0
KHE1 210654Z 02007KT 13/09 A3026 RMK A01 T01280092  RH  079%=      5-min Rain = 0
KHE1 210655Z 02007KT 13/09 A3026 RMK A01 T01270092  RH  079%=      5-min Rain = 0
KHE1 210656Z 03007KT 13/09 A3026 RMK A01 T01270092  RH  079%=      5-min Rain = 0
KHE1 210657Z 03007KT 13/09 A3026 RMK A01 T01260092  RH  080%=      5-min Rain = 0
KHE1 210658Z 03007KT 13/09 A3026 RMK A01 T01260092  RH  080%=      5-min Rain = 0
KHE1 210659Z 03007KT 13/09 A3026 RMK A01 T01260092  RH  080%=      5-min Rain = 0
KHE1 210700Z 03007KT 13/09 A3026 RMK A01 T01260092  RH  080%=      5-min Rain = 0
KHE1 210701Z 03007KT 13/09 A3026 RMK A01 T01250092  RH  080%=      5-min Rain = 0
KHE1 210702Z 03007KT 13/09 A3026 RMK A01 T01250092  RH  080%=      5-min Rain = 0
KHE1 210703Z 03007KT 13/09 A3026 RMK A01 T01250092  RH  080%=      5-min Rain = 0
KHE1 210704Z 03007KT 13/09 A3026 RMK A01 T01250092  RH  080%=      5-min Rain = 0
KHE1 210705Z 03007KT 13/09 A3026 RMK A01 T01250092  RH  080%=      5-min Rain = 0
KHE1 210706Z 03008KT 13/09 A3026 RMK A01 T01250093  RH  080%=      5-min Rain = 0
KHE1 210707Z 03008KT 13/09 A3026 RMK A01 T01260093  RH  080%=      5-min Rain = 0
KHE1 210708Z 03007KT 13/09 A3026 RMK A01 T01270094  RH  080%=      5-min Rain = 0
KHE1 210709Z 03007KT 13/09 A3026 RMK A01 T01270094  RH  080%=      5-min Rain = 0
KHE1 210710Z 04007KT 13/09 A3026 RMK A01 T01280093  RH  080%=      5-min Rain = 0
KHE1 210711Z 04007KT 13/09 A3026 RMK A01 T01270093  RH  080%=      5-min Rain = 0
KHE1 210712Z 04007KT 13/09 A3026 RMK A01 T01270093  RH  080%=      5-min Rain = 0
KHE1 210713Z 04007KT 13/09 A3026 RMK A01 T01270093  RH  080%=      5-min Rain = 0
KHE1 210714Z 03006KT 13/09 A3026 RMK A01 T01270093  RH  080%=      5-min Rain = 0
KHE1 210715Z 03007KT 13/09 A3026 RMK A01 T01270093  RH  080%=      5-min Rain = 0
KHE1 210716Z 03007KT 13/09 A3026 RMK A01 T01270093  RH  080%=      5-min Rain = 0
KHE1 210717Z 03006KT 13/09 A3026 RMK A01 T01260093  RH  080%=      5-min Rain = 0
KHE1 210718Z 03006KT 13/09 A3026 RMK A01 T01260093  RH  080%=      5-min Rain = 0
KHE1 210719Z 02006KT 13/09 A3026 RMK A01 T01250093  RH  081%=      5-min Rain = 0
KHE1 210720Z 02006KT 13/09 A3026 RMK A01 T01250093  RH  081%=      5-min Rain = 0
KHE1 210721Z 02007KT 13/09 A3026 RMK A01 T01250093  RH  081%=      5-min Rain = 0
KHE1 210722Z 03007KT 13/09 A3026 RMK A01 T01250093  RH  081%=      5-min Rain = 0
KHE1 210723Z 03006KT 12/09 A3026 RMK A01 T01240092  RH  081%=      5-min Rain = 0
KHE1 210724Z 03006KT 12/09 A3026 RMK A01 T01240092  RH  081%=      5-min Rain = 0
KHE1 210725Z 03006KT 12/09 A3026 RMK A01 T01240092  RH  081%=      5-min Rain = 0
KHE1 210726Z 03006KT 12/09 A3026 RMK A01 T01230092  RH  081%=      5-min Rain = 0
KHE1 210727Z 03006KT 12/09 A3026 RMK A01 T01230092  RH  081%=      5-min Rain = 0
KHE1 210728Z 03006KT 12/09 A3026 RMK A01 T01220092  RH  082%=      5-min Rain = 0
KHE1 210729Z 02006KT 12/09 A3025 RMK A01 T01220092  RH  082%=      5-min Rain = 0
KHE1 210730Z 02006KT 12/09 A3025 RMK A01 T01220092  RH  082%=      5-min Rain = 0
KHE1 210731Z 02006KT 12/09 A3025 RMK A01 T01220092  RH  082%=      5-min Rain = 0
KHE1 210732Z 02006KT 12/09 A3025 RMK A01 T01210092  RH  082%=      5-min Rain = 0
KHE1 210733Z 02006KT 12/09 A3025 RMK A01 T01210092  RH  082%=      5-min Rain = 0
KHE1 210734Z 02005KT 12/09 A3025 RMK A01 T01200091  RH  082%=      5-min Rain = 0
KHE1 210735Z 01005KT 12/09 A3025 RMK A01 T01190090  RH  083%=      5-min Rain = 0
KHE1 210736Z 01005KT 12/09 A3025 RMK A01 T01170090  RH  083%=      5-min Rain = 0
KHE1 210737Z 01005KT 12/09 A3025 RMK A01 T01170090  RH  083%=      5-min Rain = 0
KHE1 210738Z 01005KT 12/09 A3026 RMK A01 T01160090  RH  084%=      5-min Rain = 0
KHE1 210739Z 01005KT 12/09 A3026 RMK A01 T01160090  RH  084%=      5-min Rain = 0
KHE1 210740Z 00005KT 12/09 A3026 RMK A01 T01160089  RH  084%=      5-min Rain = 0
KHE1 210741Z 36005KT 12/09 A3026 RMK A01 T01150089  RH  084%=      5-min Rain = 0
KHE1 210742Z 35005KT 12/09 A3026 RMK A01 T01150089  RH  084%=      5-min Rain = 0
KHE1 210743Z 35005KT 12/09 A3026 RMK A01 T01150088  RH  084%=      5-min Rain = 0
KHE1 210744Z 34006KT 11/09 A3026 RMK A01 T01140087  RH  084%=      5-min Rain = 0
KHE1 210745Z 35005KT 11/09 A3026 RMK A01 T01130087  RH  084%=      5-min Rain = 0
KHE1 210746Z 35006KT 11/09 A3026 RMK A01 T01130088  RH  085%=      5-min Rain = 0
KHE1 210747Z 36006KT 11/09 A3026 RMK A01 T01130089  RH  085%=      5-min Rain = 0
KHE1 210748Z 00006KT 11/09 A3026 RMK A01 T01140089  RH  085%=      5-min Rain = 0
KHE1 210749Z 00006KT 11/09 A3026 RMK A01 T01140089  RH  085%=      5-min Rain = 0
KHE1 210750Z 00006KT 11/09 A3026 RMK A01 T01140089  RH  085%=      5-min Rain = 0
KHE1 210751Z 01006KT 11/09 A3026 RMK A01 T01140089  RH  085%=      5-min Rain = 0
KHE1 210752Z 01007KT 11/09 A3026 RMK A01 T01140090  RH  085%=      5-min Rain = 0
KHE1 210753Z 01007KT 12/09 A3026 RMK A01 T01150090  RH  085%=      5-min Rain = 0
KHE1 210754Z 01007KT 12/09 A3026 RMK A01 T01160091  RH  085%=      5-min Rain = 0
KHE1 210755Z 01007KT 12/09 A3026 RMK A01 T01160091  RH  085%=      5-min Rain = 0
KHE1 210756Z 01007KT 12/09 A3026 RMK A01 T01160091  RH  084%=      5-min Rain = 0
KHE1 210757Z 01007KT 12/09 A3026 RMK A01 T01170091  RH  084%=      5-min Rain = 0
KHE1 210758Z 01007KT 12/09 A3026 RMK A01 T01160091  RH  084%=      5-min Rain = 0
KHE1 210759Z 01007KT 12/09 A3026 RMK A01 T01160091  RH  084%=      5-min Rain = 0
KHE1 210800Z 01007KT 12/09 A3026 RMK A01 T01160091  RH  085%=      5-min Rain = 0
KHE1 210801Z 00006KT 12/09 A3026 RMK A01 T01160091  RH  084%=      5-min Rain = 0
KHE1 210802Z 00006KT 12/09 A3026 RMK A01 T01150090  RH  084%=      5-min Rain = 0
KHE1 210803Z 00005KT 11/09 A3026 RMK A01 T01140089  RH  085%=      5-min Rain = 0
KHE1 210804Z 00005KT 11/09 A3026 RMK A01 T01130089  RH  085%=      5-min Rain = 0
KHE1 210805Z 01006KT 11/09 A3026 RMK A01 T01130089  RH  085%=      5-min Rain = 0
KHE1 210806Z 01006KT 11/09 A3026 RMK A01 T01120089  RH  085%=      5-min Rain = 0
KHE1 210807Z 00005KT 11/09 A3026 RMK A01 T01120088  RH  085%=      5-min Rain = 0
KHE1 210808Z 00005KT 11/09 A3026 RMK A01 T01110088  RH  086%=      5-min Rain = 0
KHE1 210809Z 00006KT 11/09 A3026 RMK A01 T01110088  RH  086%=      5-min Rain = 0
KHE1 210810Z 00006KT 11/09 A3026 RMK A01 T01110089  RH  086%=      5-min Rain = 0
KHE1 210811Z 00006KT 11/09 A3026 RMK A01 T01110089  RH  086%=      5-min Rain = 0
KHE1 210812Z 01006KT 11/09 A3026 RMK A01 T01110089  RH  086%=      5-min Rain = 0
KHE1 210813Z 01006KT 11/09 A3026 RMK A01 T01110090  RH  086%=      5-min Rain = 0
KHE1 210814Z 01006KT 11/09 A3026 RMK A01 T01120090  RH  086%=      5-min Rain = 0
KHE1 210815Z 01007KT 11/09 A3026 RMK A01 T01140091  RH  086%=      5-min Rain = 0
KHE1 210816Z 01007KT 11/09 A3026 RMK A01 T01140091  RH  086%=      5-min Rain = 0
KHE1 210817Z 00007KT 12/09 A3026 RMK A01 T01150092  RH  086%=      5-min Rain = 0
KHE1 210818Z 00006KT 12/09 A3026 RMK A01 T01150091  RH  086%=      5-min Rain = 0
KHE1 210819Z 00006KT 12/09 A3026 RMK A01 T01150091  RH  086%=      5-min Rain = 0
KHE1 210820Z 00006KT 11/09 A3026 RMK A01 T01140091  RH  086%=      5-min Rain = 0
KHE1 210821Z 00006KT 11/09 A3026 RMK A01 T01130091  RH  086%=      5-min Rain = 0
KHE1 210822Z 00006KT 11/09 A3026 RMK A01 T01120090  RH  086%=      5-min Rain = 0
KHE1 210823Z 00005KT 11/09 A3026 RMK A01 T01110090  RH  087%=      5-min Rain = 0
KHE1 210824Z 00005KT 11/09 A3026 RMK A01 T01110090  RH  087%=      5-min Rain = 0
KHE1 210825Z 01004KT 11/09 A3026 RMK A01 T01110090  RH  087%=      5-min Rain = 0
KHE1 210826Z 01004KT 11/09 A3026 RMK A01 T01100088  RH  087%=      5-min Rain = 0
KHE1 210827Z 01004KT 11/09 A3026 RMK A01 T01090088  RH  087%=      5-min Rain = 0
KHE1 210828Z 00005KT 11/09 A3026 RMK A01 T01090089  RH  087%=      5-min Rain = 0
KHE1 210829Z 01005KT 11/09 A3026 RMK A01 T01090090  RH  088%=      5-min Rain = 0
KHE1 210830Z 00004KT 11/09 A3026 RMK A01 T01100091  RH  088%=      5-min Rain = 0
KHE1 210831Z 36004KT 11/09 A3026 RMK A01 T01110091  RH  087%=      5-min Rain = 0
KHE1 210832Z 36004KT 11/09 A3026 RMK A01 T01110091  RH  087%=      5-min Rain = 0
KHE1 210833Z 36004KT 11/09 A3026 RMK A01 T01120091  RH  087%=      5-min Rain = 0
KHE1 210834Z 00004KT 11/09 A3026 RMK A01 T01120091  RH  087%=      5-min Rain = 0
KHE1 210835Z 00004KT 11/09 A3026 RMK A01 T01120091  RH  087%=      5-min Rain = 0
KHE1 210836Z 01004KT 11/09 A3026 RMK A01 T01120091  RH  087%=      5-min Rain = 0
KHE1 210837Z 01004KT 11/09 A3026 RMK A01 T01120092  RH  087%=      5-min Rain = 0
KHE1 210838Z 01004KT 11/09 A3026 RMK A01 T01130092  RH  087%=      5-min Rain = 0
KHE1 210839Z 01004KT 11/09 A3026 RMK A01 T01130092  RH  087%=      5-min Rain = 0
KHE1 210840Z 00004KT 11/09 A3026 RMK A01 T01130092  RH  087%=      5-min Rain = 0
KHE1 210841Z 36004KT 11/09 A3026 RMK A01 T01140092  RH  086%=      5-min Rain = 0
KHE1 210842Z 35004KT 11/09 A3026 RMK A01 T01140092  RH  086%=      5-min Rain = 0
KHE1 210843Z 35004KT 11/09 A3026 RMK A01 T01140092  RH  086%=      5-min Rain = 0
KHE1 210844Z 34004KT 11/09 A3026 RMK A01 T01140092  RH  086%=      5-min Rain = 0
KHE1 210845Z 34005KT 11/09 A3026 RMK A01 T01140091  RH  086%=      5-min Rain = 0
KHE1 210846Z 34005KT 11/09 A3026 RMK A01 T01130090  RH  086%=      5-min Rain = 0
KHE1 210847Z 34005KT 11/09 A3026 RMK A01 T01110088  RH  086%=      5-min Rain = 0
KHE1 210848Z 34005KT 11/09 A3026 RMK A01 T01090087  RH  086%=      5-min Rain = 0
KHE1 210849Z 34006KT 11/09 A3026 RMK A01 T01080088  RH  087%=      5-min Rain = 0
KHE1 210850Z 34005KT 11/09 A3026 RMK A01 T01080089  RH  088%=      5-min Rain = 0
KHE1 210851Z 35006KT 11/09 A3026 RMK A01 T01080090  RH  088%=      5-min Rain = 0
KHE1 210852Z 35005KT 11/09 A3026 RMK A01 T01080090  RH  089%=      5-min Rain = 0
KHE1 210853Z 35005KT 11/09 A3026 RMK A01 T01090090  RH  089%=      5-min Rain = 0
KHE1 210854Z 35005KT 11/09 A3026 RMK A01 T01080090  RH  089%=      5-min Rain = 0
KHE1 210855Z 35004KT 11/09 A3026 RMK A01 T01090091  RH  089%=      5-min Rain = 0
KHE1 210856Z 35004KT 11/09 A3026 RMK A01 T01090091  RH  089%=      5-min Rain = 0
KHE1 210857Z 35004KT 11/09 A3026 RMK A01 T01100092  RH  089%=      5-min Rain = 0
KHE1 210858Z 35005KT 11/09 A3026 RMK A01 T01100092  RH  088%=      5-min Rain = 0
KHE1 210859Z 35005KT 11/09 A3026 RMK A01 T01100092  RH  088%=      5-min Rain = 0
KHE1 210900Z 35005KT 11/09 A3026 RMK A01 T01110092  RH  088%=      5-min Rain = 0
KHE1 210901Z 35006KT 11/09 A3026 RMK A01 T01110092  RH  088%=      5-min Rain = 0
KHE1 210902Z 35005KT 11/09 A3026 RMK A01 T01100092  RH  088%=      5-min Rain = 0
KHE1 210903Z 36005KT 11/09 A3026 RMK A01 T01100092  RH  088%=      5-min Rain = 0
KHE1 210904Z 36005KT 11/09 A3026 RMK A01 T01100092  RH  089%=      5-min Rain = 0
KHE1 210905Z 35005KT 11/09 A3026 RMK A01 T01100092  RH  089%=      5-min Rain = 0
KHE1 210906Z 35005KT 11/09 A3026 RMK A01 T01100093  RH  089%=      5-min Rain = 0
KHE1 210907Z 35005KT 11/09 A3026 RMK A01 T01100093  RH  089%=      5-min Rain = 0
KHE1 210908Z 35005KT 11/09 A3026 RMK A01 T01100092  RH  089%=      5-min Rain = 0
KHE1 210909Z 35005KT 11/09 A3026 RMK A01 T01090092  RH  089%=      5-min Rain = 0
KHE1 210910Z 35005KT 11/09 A3026 RMK A01 T01090092  RH  089%=      5-min Rain = 0
KHE1 210911Z 35006KT 11/09 A3026 RMK A01 T01090093  RH  090%=      5-min Rain = 0
KHE1 210912Z 34006KT 11/09 A3026 RMK A01 T01090094  RH  090%=      5-min Rain = 0
KHE1 210913Z 35006KT 11/10 A3026 RMK A01 T01100095  RH  090%=      5-min Rain = 0
KHE1 210914Z 34007KT 11/10 A3026 RMK A01 T01100096  RH  091%=      5-min Rain = 0
KHE1 210915Z 34007KT 11/10 A3026 RMK A01 T01110096  RH  091%=      5-min Rain = 0
KHE1 210916Z 35007KT 11/10 A3026 RMK A01 T01120097  RH  090%=      5-min Rain = 0
KHE1 210917Z 35006KT 11/10 A3026 RMK A01 T01120097  RH  090%=      5-min Rain = 0
KHE1 210918Z 35006KT 11/10 A3026 RMK A01 T01120097  RH  090%=      5-min Rain = 0
KHE1 210919Z 35006KT 11/10 A3026 RMK A01 T01120097  RH  090%=      5-min Rain = 0
KHE1 210920Z 34005KT 11/10 A3026 RMK A01 T01120097  RH  090%=      5-min Rain = 0
KHE1 210921Z 34005KT 11/10 A3026 RMK A01 T01120096  RH  090%=      5-min Rain = 0
KHE1 210922Z 34006KT 11/10 A3026 RMK A01 T01110095  RH  090%=      5-min Rain = 0
KHE1 210923Z 34005KT 11/10 A3026 RMK A01 T01100095  RH  090%=      5-min Rain = 0
KHE1 210924Z 34005KT 11/09 A3026 RMK A01 T01100094  RH  090%=      5-min Rain = 0
KHE1 210925Z 34005KT 11/09 A3026 RMK A01 T01090093  RH  090%=      5-min Rain = 0
KHE1 210926Z 34005KT 11/09 A3026 RMK A01 T01080093  RH  090%=      5-min Rain = 0
KHE1 210927Z 34005KT 11/09 A3026 RMK A01 T01080093  RH  090%=      5-min Rain = 0
KHE1 210928Z 34005KT 11/09 A3026 RMK A01 T01070092  RH  090%=      5-min Rain = 0
KHE1 210929Z 34005KT 11/09 A3026 RMK A01 T01060092  RH  091%=      5-min Rain = 0
KHE1 210930Z 34005KT 11/09 A3026 RMK A01 T01060091  RH  091%=      5-min Rain = 0
KHE1 210931Z 34005KT 11/09 A3026 RMK A01 T01050091  RH  091%=      5-min Rain = 0
KHE1 210932Z 34005KT 11/09 A3026 RMK A01 T01050092  RH  091%=      5-min Rain = 0
KHE1 210933Z 34005KT 11/09 A3026 RMK A01 T01050092  RH  092%=      5-min Rain = 0
KHE1 210934Z 34006KT 11/09 A3026 RMK A01 T01050092  RH  092%=      5-min Rain = 0
KHE1 210935Z 34006KT 11/09 A3026 RMK A01 T01060092  RH  091%=      5-min Rain = 0
KHE1 210936Z 34006KT 11/09 A3026 RMK A01 T01050092  RH  091%=      5-min Rain = 0
KHE1 210937Z 34006KT 11/09 A3026 RMK A01 T01050092  RH  091%=      5-min Rain = 0
KHE1 210938Z 34006KT 11/09 A3026 RMK A01 T01050092  RH  092%=      5-min Rain = 0
KHE1 210939Z 35006KT 11/09 A3026 RMK A01 T01050093  RH  092%=      5-min Rain = 0
KHE1 210940Z 35006KT 11/09 A3026 RMK A01 T01060094  RH  092%=      5-min Rain = 0
KHE1 210941Z 35006KT 11/09 A3026 RMK A01 T01070094  RH  092%=      5-min Rain = 0
KHE1 210942Z 35006KT 11/10 A3026 RMK A01 T01070095  RH  092%=      5-min Rain = 0
KHE1 210943Z 34006KT 11/10 A3026 RMK A01 T01080096  RH  092%=      5-min Rain = 0
KHE1 210944Z 34006KT 11/10 A3026 RMK A01 T01080095  RH  092%=      5-min Rain = 0
KHE1 210945Z 34006KT 11/10 A3026 RMK A01 T01080095  RH  092%=      5-min Rain = 0
KHE1 210946Z 34006KT 11/10 A3026 RMK A01 T01080095  RH  092%=      5-min Rain = 0
KHE1 210947Z 34006KT 11/10 A3026 RMK A01 T01080095  RH  091%=      5-min Rain = 0
KHE1 210948Z 34006KT 11/10 A3027 RMK A01 T01080095  RH  091%=      5-min Rain = 0
KHE1 210949Z 33006KT 11/09 A3027 RMK A01 T01080094  RH  091%=      5-min Rain = 0
KHE1 210950Z 33006KT 11/09 A3027 RMK A01 T01070094  RH  091%=      5-min Rain = 0
KHE1 210951Z 33006KT 11/09 A3027 RMK A01 T01070094  RH  092%=      5-min Rain = 0
KHE1 210952Z 33007KT 11/09 A3027 RMK A01 T01070094  RH  092%=      5-min Rain = 0
KHE1 210953Z 33006KT 11/09 A3027 RMK A01 T01070094  RH  092%=      5-min Rain = 0
KHE1 210954Z 33007KT 11/09 A3027 RMK A01 T01070094  RH  091%=      5-min Rain = 0
KHE1 210955Z 33006KT 11/09 A3027 RMK A01 T01070094  RH  092%=      5-min Rain = 0
KHE1 210956Z 32006KT 11/09 A3027 RMK A01 T01070094  RH  092%=      5-min Rain = 0
KHE1 210957Z 33006KT 11/09 A3027 RMK A01 T01070094  RH  092%=      5-min Rain = 0
KHE1 210958Z 33006KT 11/10 A3027 RMK A01 T01070095  RH  092%=      5-min Rain = 0
KHE1 210959Z 33006KT 11/10 A3027 RMK A01 T01080095  RH  092%=      5-min Rain = 0
KHE1 211000Z 33006KT 11/10 A3027 RMK A01 T01080095  RH  092%=      5-min Rain = 0
KHE1 211001Z 33006KT 11/10 A3027 RMK A01 T01080095  RH  091%=      5-min Rain = 0
KHE1 211002Z 33006KT 11/09 A3027 RMK A01 T01080094  RH  091%=      5-min Rain = 0
KHE1 211003Z 32006KT 11/09 A3027 RMK A01 T01080094  RH  091%=      5-min Rain = 0
KHE1 211004Z 32006KT 11/09 A3027 RMK A01 T01080094  RH  091%=      5-min Rain = 0
KHE1 211005Z 32006KT 11/10 A3027 RMK A01 T01080095  RH  091%=      5-min Rain = 0
KHE1 211006Z 32007KT 11/10 A3027 RMK A01 T01080095  RH  092%=      5-min Rain = 0
KHE1 211007Z 32007KT 11/09 A3027 RMK A01 T01080094  RH  091%=      5-min Rain = 0
KHE1 211008Z 32006KT 11/09 A3027 RMK A01 T01070094  RH  092%=      5-min Rain = 0
KHE1 211009Z 32006KT 11/09 A3027 RMK A01 T01070094  RH  092%=      5-min Rain = 0
KHE1 211010Z 32006KT 11/09 A3027 RMK A01 T01070094  RH  092%=      5-min Rain = 0
KHE1 211011Z 32006KT 11/09 A3027 RMK A01 T01070094  RH  091%=      5-min Rain = 0
KHE1 211012Z 32006KT 11/09 A3027 RMK A01 T01070094  RH  091%=      5-min Rain = 0
KHE1 211013Z 32006KT 11/09 A3027 RMK A01 T01070094  RH  091%=      5-min Rain = 0
KHE1 211014Z 32006KT 11/09 A3027 RMK A01 T01070094  RH  091%=      5-min Rain = 0
KHE1 211015Z 32005KT 11/09 A3027 RMK A01 T01070094  RH  091%=      5-min Rain = 0
KHE1 211016Z 32005KT 11/09 A3027 RMK A01 T01070094  RH  092%=      5-min Rain = 0
KHE1 211017Z 32005KT 11/09 A3027 RMK A01 T01080094  RH  092%=      5-min Rain = 0
KHE1 211018Z 32005KT 11/09 A3027 RMK A01 T01070094  RH  092%=      5-min Rain = 0
KHE1 211019Z 33006KT 11/09 A3027 RMK A01 T01070094  RH  092%=      5-min Rain = 0
KHE1 211020Z 33005KT 11/09 A3027 RMK A01 T01070094  RH  092%=      5-min Rain = 0
KHE1 211021Z 33005KT 11/10 A3027 RMK A01 T01070095  RH  092%=      5-min Rain = 0
KHE1 211022Z 33005KT 11/10 A3027 RMK A01 T01080095  RH  092%=      5-min Rain = 0
KHE1 211023Z 34005KT 11/10 A3027 RMK A01 T01080095  RH  092%=      5-min Rain = 0
KHE1 211024Z 34005KT 11/10 A3027 RMK A01 T01080096  RH  092%=      5-min Rain = 0
KHE1 211025Z 34005KT 11/10 A3027 RMK A01 T01090096  RH  092%=      5-min Rain = 0
KHE1 211026Z 34005KT 11/10 A3027 RMK A01 T01090096  RH  092%=      5-min Rain = 0
KHE1 211027Z 35005KT 11/10 A3026 RMK A01 T01090096  RH  092%=      5-min Rain = 0
KHE1 211028Z 35005KT 11/10 A3026 RMK A01 T01090096  RH  092%=      5-min Rain = 0
KHE1 211029Z 35005KT 11/10 A3026 RMK A01 T01100097  RH  092%=      5-min Rain = 0
KHE1 211030Z 35005KT 11/10 A3026 RMK A01 T01110098  RH  092%=      5-min Rain = 0
KHE1 211031Z 35005KT 11/10 A3026 RMK A01 T01110098  RH  092%=      5-min Rain = 0
KHE1 211032Z 35005KT 11/10 A3026 RMK A01 T01110099  RH  092%=      5-min Rain = 0
KHE1 211033Z 35005KT 11/10 A3026 RMK A01 T01120099  RH  092%=      5-min Rain = 0
KHE1 211034Z 35005KT 11/10 A3026 RMK A01 T01120099  RH  092%=      5-min Rain = 0
KHE1 211035Z 35005KT 11/10 A3026 RMK A01 T01130100  RH  092%=      5-min Rain = 0
KHE1 211036Z 35005KT 11/10 A3027 RMK A01 T01140101  RH  092%=      5-min Rain = 0
KHE1 211037Z 35005KT 11/10 A3027 RMK A01 T01140101  RH  092%=      5-min Rain = 0
KHE1 211038Z 35005KT 12/10 A3027 RMK A01 T01150101  RH  091%=      5-min Rain = 0
KHE1 211039Z 35005KT 12/10 A3027 RMK A01 T01150101  RH  091%=      5-min Rain = 0
KHE1 211040Z 35004KT 12/10 A3027 RMK A01 T01150101  RH  091%=      5-min Rain = 0
KHE1 211041Z 34004KT 12/10 A3027 RMK A01 T01160102  RH  091%=      5-min Rain = 0
KHE1 211042Z 34004KT 12/10 A3027 RMK A01 T01160102  RH  091%=      5-min Rain = 0
KHE1 211043Z 34005KT 12/10 A3027 RMK A01 T01170102  RH  091%=      5-min Rain = 0
KHE1 211044Z 34005KT 12/10 A3027 RMK A01 T01170102  RH  091%=      5-min Rain = 0
KHE1 211045Z 34005KT 12/10 A3027 RMK A01 T01170102  RH  090%=      5-min Rain = 0
KHE1 211046Z 34005KT 12/10 A3027 RMK A01 T01170102  RH  090%=      5-min Rain = 0
KHE1 211047Z 34004KT 12/10 A3027 RMK A01 T01180102  RH  090%=      5-min Rain = 0
KHE1 211048Z 34004KT 12/10 A3027 RMK A01 T01180103  RH  090%=      5-min Rain = 0
KHE1 211049Z 34004KT 12/10 A3027 RMK A01 T01180103  RH  090%=      5-min Rain = 0
KHE1 211050Z 34004KT 12/10 A3027 RMK A01 T01190103  RH  090%=      5-min Rain = 0
KHE1 211051Z 34004KT 12/10 A3027 RMK A01 T01190103  RH  090%=      5-min Rain = 0
KHE1 211052Z 34004KT 12/10 A3027 RMK A01 T01190103  RH  090%=      5-min Rain = 0
KHE1 211053Z 34004KT 12/10 A3027 RMK A01 T01200103  RH  090%=      5-min Rain = 0
KHE1 211054Z 33004KT 12/10 A3027 RMK A01 T01200103  RH  090%=      5-min Rain = 0
KHE1 211055Z 33004KT 12/10 A3027 RMK A01 T01200103  RH  090%=      5-min Rain = 0
KHE1 211056Z 33004KT 12/10 A3027 RMK A01 T01200103  RH  090%=      5-min Rain = 0
KHE1 211057Z 33004KT 12/10 A3027 RMK A01 T01200103  RH  090%=      5-min Rain = 0
KHE1 211058Z 33004KT 12/10 A3027 RMK A01 T01200103  RH  089%=      5-min Rain = 0
KHE1 211059Z 33004KT 12/10 A3027 RMK A01 T01200103  RH  089%=      5-min Rain = 0
KHE1 211100Z 33005KT 12/10 A3027 RMK A01 T01200103  RH  089%=      5-min Rain = 0
KHE1 211101Z 33004KT 12/10 A3027 RMK A01 T01200103  RH  089%=      5-min Rain = 0
KHE1 211102Z 33004KT 12/10 A3027 RMK A01 T01200103  RH  089%=      5-min Rain = 0
KHE1 211103Z 33004KT 12/10 A3027 RMK A01 T01200103  RH  089%=      5-min Rain = 0
KHE1 211104Z 32004KT 12/10 A3027 RMK A01 T01210104  RH  089%=      5-min Rain = 0
KHE1 211105Z 32004KT 12/10 A3028 RMK A01 T01210104  RH  089%=      5-min Rain = 0
KHE1 211106Z 32004KT 12/10 A3028 RMK A01 T01210104  RH  089%=      5-min Rain = 0
KHE1 211107Z 32004KT 12/10 A3028 RMK A01 T01210104  RH  089%=      5-min Rain = 0
KHE1 211108Z 32004KT 12/10 A3028 RMK A01 T01220104  RH  089%=      5-min Rain = 0
KHE1 211109Z 32004KT 12/10 A3028 RMK A01 T01220104  RH  089%=      5-min Rain = 0
KHE1 211110Z 32005KT 12/10 A3028 RMK A01 T01220104  RH  089%=      5-min Rain = 0
KHE1 211111Z 32005KT 12/10 A3028 RMK A01 T01220104  RH  088%=      5-min Rain = 0
KHE1 211112Z 31004KT 12/10 A3028 RMK A01 T01230104  RH  088%=      5-min Rain = 0
KHE1 211113Z 31004KT 12/10 A3028 RMK A01 T01230104  RH  088%=      5-min Rain = 0
KHE1 211114Z 31004KT 12/10 A3028 RMK A01 T01230104  RH  088%=      5-min Rain = 0
KHE1 211115Z 31003KT 12/10 A3028 RMK A01 T01230104  RH  088%=      5-min Rain = 0
KHE1 211116Z 31003KT 12/10 A3028 RMK A01 T01230104  RH  088%=      5-min Rain = 0
KHE1 211117Z 30004KT 12/10 A3028 RMK A01 T01230103  RH  088%=      5-min Rain = 0
KHE1 211118Z 31004KT 12/10 A3028 RMK A01 T01230103  RH  088%=      5-min Rain = 0
KHE1 211119Z 31004KT 12/10 A3028 RMK A01 T01230104  RH  088%=      5-min Rain = 0
KHE1 211120Z 30004KT 12/10 A3028 RMK A01 T01230104  RH  088%=      5-min Rain = 0
KHE1 211121Z 30004KT 12/10 A3028 RMK A01 T01230104  RH  088%=      5-min Rain = 0
KHE1 211122Z 30004KT 12/10 A3028 RMK A01 T01240104  RH  088%=      5-min Rain = 0
KHE1 211123Z 31004KT 12/10 A3028 RMK A01 T01240104  RH  088%=      5-min Rain = 0
KHE1 211124Z 31004KT 12/10 A3028 RMK A01 T01240104  RH  088%=      5-min Rain = 0
KHE1 211125Z 31003KT 12/10 A3028 RMK A01 T01240104  RH  088%=      5-min Rain = 0
KHE1 211126Z 31003KT 13/11 A3028 RMK A01 T01250105  RH  087%=      5-min Rain = 0
KHE1 211127Z 30004KT 13/10 A3028 RMK A01 T01250104  RH  087%=      5-min Rain = 0
KHE1 211128Z 30004KT 13/10 A3028 RMK A01 T01250104  RH  087%=      5-min Rain = 0
KHE1 211129Z 30004KT 13/10 A3028 RMK A01 T01250104  RH  087%=      5-min Rain = 0
KHE1 211130Z 30004KT 13/11 A3028 RMK A01 T01250105  RH  087%=      5-min Rain = 0
KHE1 211131Z 30004KT 13/11 A3028 RMK A01 T01260105  RH  087%=      5-min Rain = 0
KHE1 211132Z 30004KT 13/11 A3028 RMK A01 T01260105  RH  087%=      5-min Rain = 0
KHE1 211133Z 30005KT 13/11 A3028 RMK A01 T01260106  RH  087%=      5-min Rain = 0
KHE1 211134Z 30004KT 13/11 A3028 RMK A01 T01260106  RH  087%=      5-min Rain = 0
KHE1 211135Z 30004KT 13/11 A3028 RMK A01 T01260105  RH  087%=      5-min Rain = 0
KHE1 211136Z 30005KT 13/11 A3028 RMK A01 T01260105  RH  087%=      5-min Rain = 0
KHE1 211137Z 30004KT 13/11 A3028 RMK A01 T01260105  RH  087%=      5-min Rain = 0
KHE1 211138Z 30004KT 13/11 A3028 RMK A01 T01260105  RH  087%=      5-min Rain = 0
KHE1 211139Z 31004KT 13/11 A3028 RMK A01 T01260105  RH  087%=      5-min Rain = 0
KHE1 211140Z 31005KT 13/11 A3028 RMK A01 T01260106  RH  087%=      5-min Rain = 0
KHE1 211141Z 30005KT 13/11 A3028 RMK A01 T01260105  RH  087%=      5-min Rain = 0
KHE1 211142Z 31005KT 13/11 A3028 RMK A01 T01260106  RH  087%=      5-min Rain = 0
KHE1 211143Z 31005KT 13/11 A3028 RMK A01 T01260105  RH  087%=      5-min Rain = 0
KHE1 211144Z 31005KT 13/11 A3028 RMK A01 T01260105  RH  087%=      5-min Rain = 0
KHE1 211145Z 31005KT 13/11 A3028 RMK A01 T01260105  RH  087%=      5-min Rain = 0
KHE1 211146Z 31005KT 13/11 A3028 RMK A01 T01260105  RH  087%=      5-min Rain = 0
KHE1 211147Z 31006KT 13/11 A3028 RMK A01 T01260105  RH  087%=      5-min Rain = 0
KHE1 211148Z 31005KT 13/11 A3028 RMK A01 T01260105  RH  087%=      5-min Rain = 0
KHE1 211149Z 31005KT 13/11 A3028 RMK A01 T01260105  RH  087%=      5-min Rain = 0
KHE1 211150Z 31005KT 13/11 A3028 RMK A01 T01270105  RH  087%=      5-min Rain = 0
KHE1 211151Z 31005KT 13/11 A3028 RMK A01 T01270105  RH  087%=      5-min Rain = 0
KHE1 211152Z 31005KT 13/11 A3028 RMK A01 T01270105  RH  087%=      5-min Rain = 0
KHE1 211153Z 31004KT 13/11 A3028 RMK A01 T01270105  RH  086%=      5-min Rain = 0
KHE1 211154Z 31004KT 13/11 A3028 RMK A01 T01270105  RH  086%=      5-min Rain = 0
KHE1 211155Z 31004KT 13/11 A3028 RMK A01 T01270105  RH  086%=      5-min Rain = 0
KHE1 211156Z 31004KT 13/11 A3028 RMK A01 T01270105  RH  086%=      5-min Rain = 0
KHE1 211157Z 31004KT 13/11 A3028 RMK A01 T01270105  RH  086%=      5-min Rain = 0
KHE1 211158Z 31004KT 13/11 A3028 RMK A01 T01270105  RH  086%=      5-min Rain = 0
KHE1 211159Z 31004KT 13/11 A3028 RMK A01 T01270105  RH  086%=      5-min Rain = 0
KHE1 211200Z 31004KT 13/11 A3028 RMK A01 T01270105  RH  087%=      5-min Rain = 0
KHE1 211201Z 31005KT 13/11 A3028 RMK A01 T01260105  RH  087%=      5-min Rain = 0
KHE1 211202Z 31004KT 13/11 A3028 RMK A01 T01260105  RH  087%=      5-min Rain = 0
KHE1 211203Z 31005KT 13/11 A3028 RMK A01 T01260105  RH  087%=      5-min Rain = 0
KHE1 211204Z 31005KT 13/11 A3028 RMK A01 T01270105  RH  087%=      5-min Rain = 0
KHE1 211205Z 31004KT 13/11 A3028 RMK A01 T01260105  RH  087%=      5-min Rain = 0
KHE1 211206Z 31005KT 13/11 A3028 RMK A01 T01260105  RH  087%=      5-min Rain = 0
KHE1 211207Z 31004KT 13/11 A3028 RMK A01 T01260105  RH  087%=      5-min Rain = 0
KHE1 211208Z 31004KT 13/11 A3028 RMK A01 T01250105  RH  087%=      5-min Rain = 0
KHE1 211209Z 31004KT 13/11 A3028 RMK A01 T01250105  RH  087%=      5-min Rain = 0
KHE1 211210Z 31004KT 13/11 A3028 RMK A01 T01250105  RH  087%=      5-min Rain = 0
KHE1 211211Z 30005KT 13/11 A3028 RMK A01 T01250105  RH  087%=      5-min Rain = 0
KHE1 211212Z 31004KT 13/11 A3028 RMK A01 T01250105  RH  088%=      5-min Rain = 0
KHE1 211213Z 31004KT 13/11 A3028 RMK A01 T01250105  RH  088%=      5-min Rain = 0
KHE1 211214Z 31004KT 12/11 A3028 RMK A01 T01240105  RH  088%=      5-min Rain = 0
KHE1 211215Z 31004KT 12/10 A3028 RMK A01 T01240104  RH  088%=      5-min Rain = 0
KHE1 211216Z 31004KT 12/11 A3028 RMK A01 T01240105  RH  088%=      5-min Rain = 0
KHE1 211217Z 30004KT 12/10 A3028 RMK A01 T01240104  RH  088%=      5-min Rain = 0
KHE1 211218Z 30003KT 12/11 A3028 RMK A01 T01240105  RH  088%=      5-min Rain = 0
KHE1 211219Z 30003KT 12/11 A3028 RMK A01 T01240105  RH  088%=      5-min Rain = 0
KHE1 211220Z 30003KT 12/11 A3027 RMK A01 T01240105  RH  088%=      5-min Rain = 0
KHE1 211221Z 29003KT 12/10 A3027 RMK A01 T01230104  RH  088%=      5-min Rain = 0
KHE1 211222Z 29003KT 12/11 A3027 RMK A01 T01230105  RH  088%=      5-min Rain = 0
KHE1 211223Z 29003KT 12/10 A3027 RMK A01 T01230104  RH  088%=      5-min Rain = 0
KHE1 211224Z 29003KT 12/10 A3027 RMK A01 T01230104  RH  088%=      5-min Rain = 0
KHE1 211225Z 29003KT 12/10 A3027 RMK A01 T01230104  RH  088%=      5-min Rain = 0
KHE1 211226Z 29003KT 12/10 A3027 RMK A01 T01230104  RH  088%=      5-min Rain = 0
KHE1 211227Z 29003KT 12/10 A3027 RMK A01 T01230104  RH  088%=      5-min Rain = 0
KHE1 211228Z 28002KT 12/10 A3027 RMK A01 T01220104  RH  088%=      5-min Rain = 0
KHE1 211229Z 29002KT 12/10 A3028 RMK A01 T01230104  RH  088%=      5-min Rain = 0
KHE1 211230Z 28002KT 12/10 A3028 RMK A01 T01220103  RH  088%=      5-min Rain = 0
KHE1 211231Z 28002KT 12/10 A3028 RMK A01 T01220104  RH  089%=      5-min Rain = 0
KHE1 211232Z 27002KT 12/10 A3028 RMK A01 T01220103  RH  089%=      5-min Rain = 0
KHE1 211233Z 27001KT 12/10 A3028 RMK A01 T01220103  RH  089%=      5-min Rain = 0
KHE1 211234Z 28002KT 12/10 A3028 RMK A01 T01210103  RH  089%=      5-min Rain = 0
KHE1 211235Z 28002KT 12/10 A3028 RMK A01 T01210103  RH  089%=      5-min Rain = 0
KHE1 211236Z 27002KT 12/10 A3028 RMK A01 T01210103  RH  089%=      5-min Rain = 0
KHE1 211237Z 27002KT 12/10 A3028 RMK A01 T01210103  RH  089%=      5-min Rain = 0
KHE1 211238Z 27002KT 12/10 A3028 RMK A01 T01200103  RH  089%=      5-min Rain = 0
KHE1 211239Z 27002KT 12/10 A3028 RMK A01 T01200102  RH  089%=      5-min Rain = 0
KHE1 211240Z 28002KT 12/10 A3028 RMK A01 T01200103  RH  089%=      5-min Rain = 0
KHE1 211241Z 28002KT 12/10 A3028 RMK A01 T01200102  RH  089%=      5-min Rain = 0
KHE1 211242Z 28003KT 12/10 A3028 RMK A01 T01200102  RH  089%=      5-min Rain = 0
KHE1 211243Z 28002KT 12/10 A3028 RMK A01 T01200102  RH  089%=      5-min Rain = 0
KHE1 211244Z 27002KT 12/10 A3028 RMK A01 T01200102  RH  089%=      5-min Rain = 0
KHE1 211245Z 26002KT 12/10 A3028 RMK A01 T01200102  RH  089%=      5-min Rain = 0
KHE1 211246Z 26002KT 12/10 A3028 RMK A01 T01190102  RH  089%=      5-min Rain = 0
KHE1 211247Z 25002KT 12/10 A3028 RMK A01 T01200102  RH  089%=      5-min Rain = 0
KHE1 211248Z 25002KT 12/10 A3028 RMK A01 T01200102  RH  089%=      5-min Rain = 0
KHE1 211249Z 25002KT 12/10 A3029 RMK A01 T01200102  RH  089%=      5-min Rain = 0
KHE1 211250Z 25001KT 12/10 A3029 RMK A01 T01200102  RH  089%=      5-min Rain = 0
KHE1 211251Z 25001KT 12/10 A3029 RMK A01 T01200102  RH  089%=      5-min Rain = 0
KHE1 211252Z 23001KT 12/10 A3029 RMK A01 T01200102  RH  089%=      5-min Rain = 0
KHE1 211253Z 20001KT 12/10 A3029 RMK A01 T01200102  RH  089%=      5-min Rain = 0
KHE1 211254Z 20001KT 12/10 A3029 RMK A01 T01200102  RH  089%=      5-min Rain = 0
KHE1 211255Z 18001KT 12/10 A3029 RMK A01 T01190101  RH  088%=      5-min Rain = 0
KHE1 211256Z 16002KT 12/10 A3029 RMK A01 T01180100  RH  089%=      5-min Rain = 0
KHE1 211257Z 16003KT 12/10 A3029 RMK A01 T01170100  RH  089%=      5-min Rain = 0
KHE1 211258Z 16003KT 12/10 A3029 RMK A01 T01160099  RH  089%=      5-min Rain = 0
KHE1 211259Z 16003KT 12/10 A3029 RMK A01 T01150099  RH  090%=      5-min Rain = 0
KHE1 211300Z 17003KT 12/10 A3029 RMK A01 T01150100  RH  091%=      5-min Rain = 0
KHE1 211301Z 18002KT 11/10 A303 RMK A01 T01140100  RH  091%=      5-min Rain = 0
KHE1 211302Z 19001KT 11/10 A303 RMK A01 T01140100  RH  091%=      5-min Rain = 0
KHE1 211303Z 21000KT 11/10 A303 RMK A01 T01140101  RH  092%=      5-min Rain = 0
KHE1 211304Z 24001KT 11/10 A303 RMK A01 T01140101  RH  092%=      5-min Rain = 0
KHE1 211305Z 25001KT 11/10 A303 RMK A01 T01140101  RH  092%=      5-min Rain = 0
KHE1 211306Z 25002KT 11/10 A303 RMK A01 T01140101  RH  092%=      5-min Rain = 0
KHE1 211307Z 25002KT 11/10 A303 RMK A01 T01140101  RH  092%=      5-min Rain = 0
KHE1 211308Z 24002KT 11/10 A303 RMK A01 T01140101  RH  091%=      5-min Rain = 0
KHE1 211309Z 24002KT 11/10 A303 RMK A01 T01140101  RH  091%=      5-min Rain = 0
KHE1 211310Z 24002KT 11/10 A303 RMK A01 T01140101  RH  091%=      5-min Rain = 0
KHE1 211311Z 23002KT 11/10 A303 RMK A01 T01140101  RH  091%=      5-min Rain = 0
KHE1 211312Z 23002KT 11/10 A303 RMK A01 T01140101  RH  091%=      5-min Rain = 0
KHE1 211313Z 23003KT 11/10 A303 RMK A01 T01140101  RH  091%=      5-min Rain = 0
KHE1 211314Z 24003KT 12/10 A303 RMK A01 T01150101  RH  091%=      5-min Rain = 0
KHE1 211315Z 24003KT 12/10 A303 RMK A01 T01150100  RH  091%=      5-min Rain = 0
KHE1 211316Z 24003KT 12/10 A303 RMK A01 T01150100  RH  091%=      5-min Rain = 0
KHE1 211317Z 25004KT 12/10 A303 RMK A01 T01150100  RH  091%=      5-min Rain = 0
KHE1 211318Z 26004KT 12/10 A303 RMK A01 T01150100  RH  090%=      5-min Rain = 0
KHE1 211319Z 26005KT 12/10 A303 RMK A01 T01150100  RH  091%=      5-min Rain = 0
KHE1 211320Z 26005KT 11/10 A303 RMK A01 T01140100  RH  091%=      5-min Rain = 0
KHE1 211321Z 27005KT 11/10 A303 RMK A01 T01140100  RH  091%=      5-min Rain = 0
KHE1 211322Z 27005KT 11/10 A303 RMK A01 T01140100  RH  091%=      5-min Rain = 0
KHE1 211323Z 27005KT 12/10 A303 RMK A01 T01150101  RH  091%=      5-min Rain = 0
KHE1 211324Z 27004KT 12/10 A303 RMK A01 T01150101  RH  091%=      5-min Rain = 0
KHE1 211325Z 27004KT 12/10 A3031 RMK A01 T01160101  RH  091%=      5-min Rain = 0
KHE1 211326Z 27003KT 12/10 A3031 RMK A01 T01160101  RH  091%=      5-min Rain = 0
KHE1 211327Z 27003KT 12/10 A3031 RMK A01 T01160101  RH  091%=      5-min Rain = 0
KHE1 211328Z 27002KT 12/10 A3031 RMK A01 T01160101  RH  091%=      5-min Rain = 0
KHE1 211329Z 27003KT 12/10 A3031 RMK A01 T01170102  RH  090%=      5-min Rain = 0
KHE1 211330Z 27002KT 12/10 A3031 RMK A01 T01170102  RH  090%=      5-min Rain = 0
KHE1 211331Z 27002KT 12/10 A3031 RMK A01 T01170102  RH  090%=      5-min Rain = 0
KHE1 211332Z 26003KT 12/10 A3031 RMK A01 T01180102  RH  090%=      5-min Rain = 0
KHE1 211333Z 27003KT 12/10 A3031 RMK A01 T01180102  RH  090%=      5-min Rain = 0
KHE1 211334Z 27004KT 12/10 A3031 RMK A01 T01180102  RH  090%=      5-min Rain = 0
KHE1 211335Z 27004KT 12/10 A3031 RMK A01 T01180102  RH  090%=      5-min Rain = 0
KHE1 211336Z 27004KT 12/10 A3031 RMK A01 T01190103  RH  090%=      5-min Rain = 0
KHE1 211337Z 27004KT 12/10 A3031 RMK A01 T01190103  RH  090%=      5-min Rain = 0
KHE1 211338Z 27004KT 12/10 A3031 RMK A01 T01190103  RH  090%=      5-min Rain = 0
KHE1 211339Z 27004KT 12/10 A3031 RMK A01 T01190103  RH  090%=      5-min Rain = 0
KHE1 211340Z 27003KT 12/10 A3031 RMK A01 T01190103  RH  090%=      5-min Rain = 0
KHE1 211341Z 27003KT 12/10 A3031 RMK A01 T01190103  RH  090%=      5-min Rain = 0
KHE1 211342Z 27003KT 12/10 A3031 RMK A01 T01190104  RH  090%=      5-min Rain = 0
KHE1 211343Z 26003KT 12/10 A3031 RMK A01 T01200104  RH  090%=      5-min Rain = 0
KHE1 211344Z 26003KT 12/10 A3031 RMK A01 T01200104  RH  090%=      5-min Rain = 0
KHE1 211345Z 27002KT 12/10 A3031 RMK A01 T01200104  RH  090%=      5-min Rain = 0
KHE1 211346Z 27003KT 12/11 A3031 RMK A01 T01210105  RH  090%=      5-min Rain = 0
KHE1 211347Z 28003KT 12/11 A3031 RMK A01 T01210105  RH  090%=      5-min Rain = 0
KHE1 211348Z 28003KT 12/11 A3031 RMK A01 T01220105  RH  090%=      5-min Rain = 0
KHE1 211349Z 27003KT 12/11 A3031 RMK A01 T01220106  RH  089%=      5-min Rain = 0
KHE1 211350Z 27003KT 12/11 A3031 RMK A01 T01230105  RH  089%=      5-min Rain = 0
KHE1 211351Z 28004KT 12/11 A3031 RMK A01 T01230106  RH  089%=      5-min Rain = 0
KHE1 211352Z 28004KT 12/11 A3031 RMK A01 T01240106  RH  089%=      5-min Rain = 0
KHE1 211353Z 28004KT 12/11 A3031 RMK A01 T01240105  RH  088%=      5-min Rain = 0
KHE1 211354Z 27003KT 12/11 A3031 RMK A01 T01240105  RH  088%=      5-min Rain = 0
KHE1 211355Z 27003KT 13/11 A3031 RMK A01 T01250105  RH  088%=      5-min Rain = 0
KHE1 211356Z 27003KT 13/11 A3031 RMK A01 T01250106  RH  088%=      5-min Rain = 0
KHE1 211357Z 27002KT 13/11 A3031 RMK A01 T01250106  RH  088%=      5-min Rain = 0
KHE1 211358Z 27002KT 13/11 A3031 RMK A01 T01260106  RH  088%=      5-min Rain = 0
KHE1 211359Z 28002KT 13/11 A3031 RMK A01 T01260106  RH  088%=      5-min Rain = 0
KHE1 211400Z 29002KT 13/11 A3031 RMK A01 T01260107  RH  088%=      5-min Rain = 0
KHE1 211401Z 29003KT 13/11 A3031 RMK A01 T01270107  RH  088%=      5-min Rain = 0
KHE1 211402Z 29003KT 13/11 A3031 RMK A01 T01270106  RH  087%=      5-min Rain = 0
KHE1 211403Z 29003KT 13/11 A3031 RMK A01 T01280107  RH  087%=      5-min Rain = 0
KHE1 211404Z 29003KT 13/11 A3031 RMK A01 T01280107  RH  087%=      5-min Rain = 0
KHE1 211405Z 28003KT 13/11 A3031 RMK A01 T01280106  RH  087%=      5-min Rain = 0
KHE1 211406Z 27002KT 13/11 A3031 RMK A01 T01280107  RH  087%=      5-min Rain = 0
KHE1 211407Z 27002KT 13/11 A3031 RMK A01 T01290107  RH  087%=      5-min Rain = 0
KHE1 211408Z 26002KT 13/11 A3031 RMK A01 T01290108  RH  087%=      5-min Rain = 0
KHE1 211409Z 27002KT 13/11 A3032 RMK A01 T01300108  RH  087%=      5-min Rain = 0
KHE1 211410Z 27002KT 13/11 A3032 RMK A01 T01300108  RH  086%=      5-min Rain = 0
KHE1 211411Z 27002KT 13/11 A3032 RMK A01 T01300107  RH  086%=      5-min Rain = 0
KHE1 211412Z 28002KT 13/11 A3032 RMK A01 T01310109  RH  086%=      5-min Rain = 0
KHE1 211413Z 29003KT 13/11 A3032 RMK A01 T01310109  RH  086%=      5-min Rain = 0
KHE1 211414Z 29003KT 13/11 A3031 RMK A01 T01310108  RH  086%=      5-min Rain = 0
KHE1 211415Z 29003KT 13/11 A3031 RMK A01 T01310107  RH  085%=      5-min Rain = 0
KHE1 211416Z 29004KT 13/11 A3031 RMK A01 T01320108  RH  086%=      5-min Rain = 0
KHE1 211417Z 29003KT 13/11 A3031 RMK A01 T01320109  RH  085%=      5-min Rain = 0
KHE1 211418Z 29002KT 13/11 A3032 RMK A01 T01330109  RH  085%=      5-min Rain = 0
KHE1 211419Z 29002KT 13/11 A3032 RMK A01 T01340109  RH  085%=      5-min Rain = 0
KHE1 211420Z 29002KT 14/11 A3032 RMK A01 T01350110  RH  085%=      5-min Rain = 0
KHE1 211421Z 30002KT 14/11 A3032 RMK A01 T01360109  RH  084%=      5-min Rain = 0
KHE1 211422Z 31003KT 14/11 A3031 RMK A01 T01360109  RH  083%=      5-min Rain = 0
KHE1 211423Z 31002KT 14/11 A3031 RMK A01 T01370111  RH  084%=      5-min Rain = 0
KHE1 211424Z 31003KT 14/11 A3031 RMK A01 T01380111  RH  084%=      5-min Rain = 0
KHE1 211425Z 31004KT 14/11 A3031 RMK A01 T01380111  RH  083%=      5-min Rain = 0
KHE1 211426Z 31005KT 14/11 A3031 RMK A01 T01390109  RH  082%=      5-min Rain = 0
KHE1 211427Z 31005KT 14/11 A3031 RMK A01 T01390110  RH  083%=      5-min Rain = 0
KHE1 211428Z 32005KT 14/11 A3031 RMK A01 T01390110  RH  083%=      5-min Rain = 0
KHE1 211429Z 32004KT 14/11 A3031 RMK A01 T01380110  RH  083%=      5-min Rain = 0
KHE1 211430Z 32004KT 14/11 A3031 RMK A01 T01380109  RH  083%=      5-min Rain = 0
KHE1 211431Z 32004KT 14/11 A3031 RMK A01 T01380110  RH  083%=      5-min Rain = 0
KHE1 211432Z 33003KT 14/11 A3031 RMK A01 T01380110  RH  083%=      5-min Rain = 0
KHE1 211433Z 33003KT 14/11 A3031 RMK A01 T01380110  RH  083%=      5-min Rain = 0
KHE1 211434Z 34003KT 14/11 A3031 RMK A01 T01380110  RH  083%=      5-min Rain = 0
KHE1 211435Z 33004KT 14/11 A3031 RMK A01 T01380110  RH  083%=      5-min Rain = 0
KHE1 211436Z 33005KT 14/11 A3031 RMK A01 T01390110  RH  083%=      5-min Rain = 0
KHE1 211437Z 34005KT 14/11 A3031 RMK A01 T01390110  RH  082%=      5-min Rain = 0
KHE1 211438Z 31003KT 14/11 A3031 RMK A01 T01390110  RH  083%=      5-min Rain = 0
KHE1 211439Z 32003KT 14/11 A3031 RMK A01 T01400111  RH  083%=      5-min Rain = 0
KHE1 211440Z 34004KT 14/11 A3031 RMK A01 T01400111  RH  082%=      5-min Rain = 0
KHE1 211441Z 33004KT 14/11 A3031 RMK A01 T01400111  RH  082%=      5-min Rain = 0
KHE1 211442Z 34003KT 14/11 A3031 RMK A01 T01400110  RH  082%=      5-min Rain = 0
KHE1 211443Z 33003KT 14/11 A3031 RMK A01 T01400110  RH  082%=      5-min Rain = 0
KHE1 211444Z 32004KT 14/11 A3031 RMK A01 T01400111  RH  082%=      5-min Rain = 0
KHE1 211445Z 32004KT 14/11 A3031 RMK A01 T01400110  RH  082%=      5-min Rain = 0
KHE1 211446Z 32004KT 14/11 A3031 RMK A01 T01400110  RH  082%=      5-min Rain = 0
KHE1 211447Z 33003KT 14/11 A3031 RMK A01 T01400110  RH  082%=      5-min Rain = 0
KHE1 211448Z 33003KT 14/11 A3031 RMK A01 T01400110  RH  082%=      5-min Rain = 0
KHE1 211449Z 34002KT 14/11 A3031 RMK A01 T01400110  RH  082%=      5-min Rain = 0
KHE1 211450Z 34002KT 14/11 A3031 RMK A01 T01400110  RH  082%=      5-min Rain = 0
KHE1 211451Z 32002KT 14/11 A3031 RMK A01 T01400111  RH  083%=      5-min Rain = 0
KHE1 211452Z 32003KT 14/11 A3031 RMK A01 T01410112  RH  083%=      5-min Rain = 0
KHE1 211453Z 33003KT 14/11 A3031 RMK A01 T01410112  RH  082%=      5-min Rain = 0
KHE1 211454Z 33003KT 14/11 A3031 RMK A01 T01420112  RH  082%=      5-min Rain = 0
KHE1 211455Z 32003KT 14/11 A3031 RMK A01 T01420110  RH  081%=      5-min Rain = 0
KHE1 211456Z 34004KT 14/11 A3031 RMK A01 T01420110  RH  081%=      5-min Rain = 0
KHE1 211457Z 34004KT 14/11 A3031 RMK A01 T01410111  RH  082%=      5-min Rain = 0
KHE1 211458Z 32003KT 14/11 A3031 RMK A01 T01410111  RH  082%=      5-min Rain = 0
KHE1 211459Z 32004KT 14/11 A3031 RMK A01 T01410111  RH  082%=      5-min Rain = 0
KHE1 211500Z 33004KT 14/11 A3031 RMK A01 T01410110  RH  082%=      5-min Rain = 0
KHE1 211501Z 34003KT 14/11 A3032 RMK A01 T01410111  RH  082%=      5-min Rain = 0
KHE1 211502Z 32004KT 14/11 A3032 RMK A01 T01410111  RH  082%=      5-min Rain = 0
KHE1 211503Z 33004KT 14/11 A3032 RMK A01 T01410110  RH  082%=      5-min Rain = 0
KHE1 211504Z 32005KT 14/11 A3032 RMK A01 T01410111  RH  082%=      5-min Rain = 0
KHE1 211505Z 32004KT 14/11 A3032 RMK A01 T01410111  RH  082%=      5-min Rain = 0
KHE1 211506Z 32003KT 14/11 A3032 RMK A01 T01410111  RH  082%=      5-min Rain = 0
KHE1 211507Z 33004KT 14/11 A3032 RMK A01 T01410112  RH  083%=      5-min Rain = 0
KHE1 211508Z 34004KT 14/11 A3032 RMK A01 T01420112  RH  082%=      5-min Rain = 0
KHE1 211509Z 33004KT 14/11 A3032 RMK A01 T01420112  RH  082%=      5-min Rain = 0
KHE1 211510Z 33004KT 14/11 A3032 RMK A01 T01420112  RH  082%=      5-min Rain = 0
KHE1 211511Z 32003KT 14/11 A3032 RMK A01 T01440113  RH  082%=      5-min Rain = 0
KHE1 211512Z 32003KT 15/11 A3031 RMK A01 T01450112  RH  081%=      5-min Rain = 0
KHE1 211513Z 33003KT 15/11 A3031 RMK A01 T01450111  RH  080%=      5-min Rain = 0
KHE1 211514Z 31004KT 15/11 A3031 RMK A01 T01450112  RH  081%=      5-min Rain = 0
KHE1 211515Z 31004KT 15/11 A3031 RMK A01 T01450111  RH  080%=      5-min Rain = 0
KHE1 211516Z 31004KT 15/11 A3032 RMK A01 T01450111  RH  080%=      5-min Rain = 0
KHE1 211517Z 31004KT 15/11 A3032 RMK A01 T01470113  RH  080%=      5-min Rain = 0
KHE1 211518Z 31005KT 15/11 A3032 RMK A01 T01480112  RH  079%=      5-min Rain = 0
KHE1 211519Z 32004KT 15/11 A3032 RMK A01 T01470112  RH  079%=      5-min Rain = 0
KHE1 211520Z 32003KT 15/11 A3032 RMK A01 T01470113  RH  080%=      5-min Rain = 0
KHE1 211521Z 32003KT 15/11 A3032 RMK A01 T01470112  RH  079%=      5-min Rain = 0
KHE1 211522Z 31003KT 15/11 A3032 RMK A01 T01490114  RH  080%=      5-min Rain = 0
KHE1 211523Z 32005KT 15/11 A3032 RMK A01 T01500114  RH  079%=      5-min Rain = 0
KHE1 211524Z 31004KT 15/11 A3032 RMK A01 T01500113  RH  078%=      5-min Rain = 0
KHE1 211525Z 31004KT 15/11 A3032 RMK A01 T01490112  RH  079%=      5-min Rain = 0
KHE1 211526Z 34004KT 15/11 A3032 RMK A01 T01480112  RH  079%=      5-min Rain = 0
KHE1 211527Z 34004KT 15/11 A3032 RMK A01 T01480113  RH  080%=      5-min Rain = 0
KHE1 211528Z 32004KT 15/11 A3032 RMK A01 T01490113  RH  079%=      5-min Rain = 0
KHE1 211529Z 33004KT 15/11 A3032 RMK A01 T01490112  RH  078%=      5-min Rain = 0
KHE1 211530Z 33005KT 15/11 A3032 RMK A01 T01500113  RH  079%=      5-min Rain = 0
KHE1 211531Z 31005KT 15/11 A3032 RMK A01 T01520114  RH  078%=      5-min Rain = 0
KHE1 211532Z 32006KT 15/11 A3032 RMK A01 T01520113  RH  077%=      5-min Rain = 0
KHE1 211533Z 32005KT 15/11 A3032 RMK A01 T01520113  RH  077%=      5-min Rain = 0
KHE1 211534Z 32005KT 15/11 A3032 RMK A01 T01520113  RH  078%=      5-min Rain = 0
KHE1 211535Z 33005KT 15/11 A3032 RMK A01 T01520114  RH  078%=      5-min Rain = 0
KHE1 211536Z 32005KT 15/12 A3032 RMK A01 T01540115  RH  078%=      5-min Rain = 0
KHE1 211537Z 32005KT 16/11 A3032 RMK A01 T01550114  RH  077%=      5-min Rain = 0
KHE1 211538Z 32004KT 16/11 A3032 RMK A01 T01560114  RH  076%=      5-min Rain = 0
KHE1 211539Z 31005KT 16/12 A3032 RMK A01 T01560115  RH  076%=      5-min Rain = 0
KHE1 211540Z 32006KT 16/12 A3032 RMK A01 T01560115  RH  077%=      5-min Rain = 0
KHE1 211541Z 31007KT 16/11 A3032 RMK A01 T01560114  RH  076%=      5-min Rain = 0
KHE1 211542Z 31006KT 16/11 A3032 RMK A01 T01550114  RH  077%=      5-min Rain = 0
KHE1 211543Z 33005KT 15/12 A3031 RMK A01 T01540115  RH  077%=      5-min Rain = 0
KHE1 211544Z 32005KT 16/12 A3031 RMK A01 T01550116  RH  077%=      5-min Rain = 0
KHE1 211545Z 32005KT 16/11 A3032 RMK A01 T01560114  RH  076%=      5-min Rain = 0
KHE1 211546Z 33004KT 15/11 A3032 RMK A01 T01540114  RH  077%=      5-min Rain = 0
KHE1 211547Z 33006KT 15/12 A3032 RMK A01 T01540115  RH  077%=      5-min Rain = 0
KHE1 211548Z 32006KT 15/11 A3032 RMK A01 T01540114  RH  077%=      5-min Rain = 0
KHE1 211549Z 32006KT 16/12 A3032 RMK A01 T01550115  RH  077%=      5-min Rain = 0
KHE1 211550Z 33006KT 16/12 A3032 RMK A01 T01580117  RH  076%=      5-min Rain = 0
KHE1 211551Z 33006KT 16/12 A3032 RMK A01 T01610116  RH  075%=      5-min Rain = 0
KHE1 211552Z 33004KT 16/12 A3032 RMK A01 T01620117  RH  075%=      5-min Rain = 0
KHE1 211553Z 33006KT 16/12 A3032 RMK A01 T01640118  RH  074%=      5-min Rain = 0
KHE1 211554Z 32006KT 16/12 A3032 RMK A01 T01640115  RH  073%=      5-min Rain = 0
KHE1 211555Z 33005KT 16/12 A3032 RMK A01 T01610115  RH  074%=      5-min Rain = 0
KHE1 211556Z 32007KT 16/12 A3032 RMK A01 T01600116  RH  075%=      5-min Rain = 0
KHE1 211557Z 32006KT 16/12 A3032 RMK A01 T01600116  RH  075%=      5-min Rain = 0
KHE1 211558Z 32006KT 16/12 A3032 RMK A01 T01610115  RH  074%=      5-min Rain = 0
KHE1 211559Z 32005KT 16/12 A3032 RMK A01 T01600115  RH  074%=      5-min Rain = 0
KHE1 211600Z 31006KT 16/12 A3032 RMK A01 T01590115  RH  075%=      5-min Rain = 0
KHE1 211601Z 31006KT 16/12 A3031 RMK A01 T01590115  RH  075%=      5-min Rain = 0
KHE1 211602Z 33006KT 16/12 A3031 RMK A01 T01580115  RH  076%=      5-min Rain = 0
KHE1 211603Z 32005KT 16/12 A3031 RMK A01 T01610117  RH  075%=      5-min Rain = 0
KHE1 211604Z 30005KT 16/12 A3031 RMK A01 T01630117  RH  074%=      5-min Rain = 0
KHE1 211605Z 31006KT 16/12 A3031 RMK A01 T01640116  RH  073%=      5-min Rain = 0
KHE1 211606Z 32005KT 16/12 A3031 RMK A01 T01630117  RH  074%=      5-min Rain = 0
KHE1 211607Z 32006KT 17/12 A3031 RMK A01 T01650117  RH  073%=      5-min Rain = 0
KHE1 211608Z 33006KT 17/12 A3031 RMK A01 T01650117  RH  073%=      5-min Rain = 0
KHE1 211609Z 31006KT 17/12 A3031 RMK A01 T01650116  RH  073%=      5-min Rain = 0
KHE1 211610Z 33005KT 16/12 A3032 RMK A01 T01640116  RH  073%=      5-min Rain = 0
KHE1 211611Z 31006KT 16/12 A3032 RMK A01 T01640117  RH  074%=      5-min Rain = 0
KHE1 211612Z 31006KT 16/12 A3032 RMK A01 T01640116  RH  073%=      5-min Rain = 0
KHE1 211613Z 32007KT 17/12 A3032 RMK A01 T01660119  RH  074%=      5-min Rain = 0
KHE1 211614Z 32007KT 17/12 A3032 RMK A01 T01680117  RH  072%=      5-min Rain = 0
KHE1 211615Z 32008KT 17/12 A3032 RMK A01 T01670116  RH  072%=      5-min Rain = 0
KHE1 211616Z 33006KT 17/12 A3032 RMK A01 T01670118  RH  073%=      5-min Rain = 0
KHE1 211617Z 34006KT 17/12 A3032 RMK A01 T01700118  RH  072%=      5-min Rain = 0
KHE1 211618Z 35006KT 17/12 A3032 RMK A01 T01700117  RH  070%=      5-min Rain = 0
KHE1 211619Z 32006KT 17/12 A3032 RMK A01 T01700118  RH  072%=      5-min Rain = 0
KHE1 211620Z 33004KT 17/12 A3032 RMK A01 T01700117  RH  071%=      5-min Rain = 0
KHE1 211621Z 35005KT 17/12 A3032 RMK A01 T01710119  RH  072%=      5-min Rain = 0
KHE1 211622Z 33006KT 17/12 A3032 RMK A01 T01720118  RH  071%=      5-min Rain = 0
KHE1 211623Z 31006KT 17/12 A3032 RMK A01 T01720118  RH  070%=      5-min Rain = 0
KHE1 211624Z 31005KT 17/12 A3032 RMK A01 T01700117  RH  071%=      5-min Rain = 0
KHE1 211625Z 32004KT 17/12 A3032 RMK A01 T01680117  RH  072%=      5-min Rain = 0
KHE1 211626Z 31005KT 17/12 A3032 RMK A01 T01690119  RH  072%=      5-min Rain = 0
KHE1 211627Z 32004KT 17/12 A3032 RMK A01 T01700118  RH  071%=      5-min Rain = 0
KHE1 211628Z 32004KT 17/12 A3032 RMK A01 T01710118  RH  071%=      5-min Rain = 0
KHE1 211629Z 32004KT 17/12 A3032 RMK A01 T01710119  RH  071%=      5-min Rain = 0
KHE1 211630Z 31005KT 17/12 A3032 RMK A01 T01720118  RH  071%=      5-min Rain = 0
KHE1 211631Z 32004KT 17/12 A3032 RMK A01 T01720119  RH  071%=      5-min Rain = 0
KHE1 211632Z 31004KT 17/12 A3031 RMK A01 T01720119  RH  071%=      5-min Rain = 0
KHE1 211633Z 29003KT 17/12 A3031 RMK A01 T01720118  RH  071%=      5-min Rain = 0
KHE1 211634Z 29002KT 17/12 A3031 RMK A01 T01710117  RH  071%=      5-min Rain = 0
KHE1 211635Z 26001KT 17/12 A3032 RMK A01 T01700117  RH  071%=      5-min Rain = 0
KHE1 211636Z 25001KT 17/12 A3032 RMK A01 T01690117  RH  071%=      5-min Rain = 0
KHE1 211637Z 21001KT 17/12 A3032 RMK A01 T01700116  RH  071%=      5-min Rain = 0
KHE1 211638Z 23001KT 17/12 A3032 RMK A01 T01710118  RH  071%=      5-min Rain = 0
KHE1 211639Z 32002KT 17/12 A3032 RMK A01 T01720119  RH  071%=      5-min Rain = 0
KHE1 211640Z 32003KT 17/12 A3032 RMK A01 T01730117  RH  070%=      5-min Rain = 0
KHE1 211641Z 31003KT 17/12 A3031 RMK A01 T01720118  RH  070%=      5-min Rain = 0
KHE1 211642Z 31002KT 17/12 A3031 RMK A01 T01710117  RH  070%=      5-min Rain = 0
KHE1 211643Z 33001KT 17/12 A3031 RMK A01 T01700117  RH  071%=      5-min Rain = 0
KHE1 211644Z 33000KT 17/12 A3031 RMK A01 T01700117  RH  071%=      5-min Rain = 0
KHE1 211645Z 33000KT 17/12 A3031 RMK A01 T01700117  RH  071%=      5-min Rain = 0
KHE1 211646Z 00000KT 17/12 A3031 RMK A01 T01700116  RH  070%=      5-min Rain = 0
KHE1 211647Z 33001KT 17/12 A3031 RMK A01 T01710116  RH  070%=      5-min Rain = 0
KHE1 211648Z 34003KT 17/12 A3031 RMK A01 T01720119  RH  071%=      5-min Rain = 0
KHE1 211649Z 34003KT 17/12 A3031 RMK A01 T01720118  RH  071%=      5-min Rain = 0
KHE1 211650Z 34002KT 17/12 A3031 RMK A01 T01730118  RH  070%=      5-min Rain = 0
KHE1 211651Z 36004KT 17/12 A3031 RMK A01 T01730119  RH  070%=      5-min Rain = 0
KHE1 211652Z 00005KT 17/12 A3031 RMK A01 T01720119  RH  071%=      5-min Rain = 0
KHE1 211653Z 33006KT 17/12 A3031 RMK A01 T01730120  RH  071%=      5-min Rain = 0
KHE1 211654Z 32004KT 17/12 A3031 RMK A01 T01740118  RH  070%=      5-min Rain = 0
KHE1 211655Z 32006KT 17/12 A3031 RMK A01 T01740118  RH  070%=      5-min Rain = 0
KHE1 211656Z 33004KT 17/12 A3031 RMK A01 T01730118  RH  070%=      5-min Rain = 0
KHE1 211657Z 32003KT 17/12 A3031 RMK A01 T01730118  RH  070%=      5-min Rain = 0
KHE1 211658Z 30003KT 17/12 A3031 RMK A01 T01730118  RH  070%=      5-min Rain = 0
KHE1 211659Z 31002KT 18/12 A3031 RMK A01 T01750119  RH  070%=      5-min Rain = 0
KHE1 211700Z 34003KT 18/12 A3031 RMK A01 T01760121  RH  070%=      5-min Rain = 0
KHE1 211701Z 33002KT 18/12 A3031 RMK A01 T01780120  RH  069%=      5-min Rain = 0
KHE1 211702Z 30002KT 18/12 A3031 RMK A01 T01800120  RH  068%=      5-min Rain = 0
KHE1 211703Z 34003KT 18/12 A303 RMK A01 T01810120  RH  067%=      5-min Rain = 0
KHE1 211704Z 35002KT 18/12 A303 RMK A01 T01820119  RH  067%=      5-min Rain = 0
KHE1 211705Z 02002KT 18/12 A303 RMK A01 T01810120  RH  067%=      5-min Rain = 0
KHE1 211706Z 03004KT 18/12 A303 RMK A01 T01810121  RH  068%=      5-min Rain = 0
KHE1 211707Z 04002KT 18/12 A303 RMK A01 T01810119  RH  067%=      5-min Rain = 0
KHE1 211708Z 02001KT 18/12 A303 RMK A01 T01810120  RH  068%=      5-min Rain = 0
KHE1 211709Z 01003KT 18/12 A303 RMK A01 T01800120  RH  068%=      5-min Rain = 0
KHE1 211710Z 09001KT 18/12 A303 RMK A01 T01810121  RH  068%=      5-min Rain = 0
KHE1 211711Z 00002KT 18/12 A303 RMK A01 T01830122  RH  067%=      5-min Rain = 0
KHE1 211712Z 02002KT 18/12 A303 RMK A01 T01840120  RH  066%=      5-min Rain = 0
KHE1 211713Z 06001KT 18/12 A303 RMK A01 T01840120  RH  066%=      5-min Rain = 0
KHE1 211714Z 06000KT 18/12 A303 RMK A01 T01840119  RH  066%=      5-min Rain = 0
KHE1 211715Z 06001KT 18/12 A303 RMK A01 T01840120  RH  066%=      5-min Rain = 0
KHE1 211716Z 04002KT 19/12 A303 RMK A01 T01860122  RH  066%=      5-min Rain = 0
KHE1 211717Z 06002KT 19/12 A303 RMK A01 T01870120  RH  065%=      5-min Rain = 0
KHE1 211718Z 10002KT 19/12 A303 RMK A01 T01860119  RH  065%=      5-min Rain = 0
KHE1 211719Z 12004KT 19/12 A303 RMK A01 T01850120  RH  066%=      5-min Rain = 0
KHE1 211720Z 13003KT 19/12 A303 RMK A01 T01860120  RH  065%=      5-min Rain = 0
KHE1 211721Z 16003KT 19/12 A303 RMK A01 T01870120  RH  065%=      5-min Rain = 0
KHE1 211722Z 16000KT 19/12 A303 RMK A01 T01870119  RH  064%=      5-min Rain = 0
KHE1 211723Z 02000KT 19/12 A303 RMK A01 T01870121  RH  066%=      5-min Rain = 0
KHE1 211724Z 13001KT 19/12 A303 RMK A01 T01870121  RH  065%=      5-min Rain = 0
KHE1 211725Z 20003KT 19/12 A303 RMK A01 T01870120  RH  065%=      5-min Rain = 0
KHE1 211726Z 20003KT 19/12 A303 RMK A01 T01870121  RH  066%=      5-min Rain = 0
KHE1 211727Z 22002KT 19/12 A303 RMK A01 T01870120  RH  065%=      5-min Rain = 0
KHE1 211728Z 14001KT 19/12 A303 RMK A01 T01860120  RH  065%=      5-min Rain = 0
KHE1 211729Z 18001KT 19/12 A303 RMK A01 T01870119  RH  065%=      5-min Rain = 0
KHE1 211730Z 15001KT 19/12 A303 RMK A01 T01870122  RH  066%=      5-min Rain = 0
KHE1 211731Z 11002KT 19/12 A303 RMK A01 T01890122  RH  065%=      5-min Rain = 0
KHE1 211732Z 11002KT 19/12 A303 RMK A01 T01900120  RH  064%=      5-min Rain = 0
KHE1 211733Z 11002KT 19/12 A303 RMK A01 T01890123  RH  065%=      5-min Rain = 0
KHE1 211734Z 11002KT 19/12 A303 RMK A01 T01890120  RH  064%=      5-min Rain = 0
KHE1 211735Z 10002KT 19/12 A303 RMK A01 T01890124  RH  066%=      5-min Rain = 0
KHE1 211736Z 13000KT 19/12 A303 RMK A01 T01910124  RH  065%=      5-min Rain = 0
KHE1 211737Z 25000KT 19/12 A303 RMK A01 T01940123  RH  064%=      5-min Rain = 0
KHE1 211738Z 27001KT 20/12 A303 RMK A01 T01950124  RH  063%=      5-min Rain = 0
KHE1 211739Z 19003KT 20/12 A303 RMK A01 T01960122  RH  062%=      5-min Rain = 0
KHE1 211740Z 19003KT 20/12 A303 RMK A01 T01950122  RH  063%=      5-min Rain = 0
KHE1 211741Z 18003KT 19/12 A303 RMK A01 T01930123  RH  064%=      5-min Rain = 0
KHE1 211742Z 18003KT 19/12 A303 RMK A01 T01930122  RH  063%=      5-min Rain = 0
KHE1 211743Z 17004KT 19/12 A303 RMK A01 T01940123  RH  063%=      5-min Rain = 0
KHE1 211744Z 19003KT 20/12 A303 RMK A01 T01950121  RH  062%=      5-min Rain = 0
KHE1 211745Z 19002KT 19/12 A303 RMK A01 T01940121  RH  063%=      5-min Rain = 0
KHE1 211746Z 20003KT 19/12 A303 RMK A01 T01940121  RH  063%=      5-min Rain = 0
KHE1 211747Z 18002KT 19/12 A303 RMK A01 T01930121  RH  063%=      5-min Rain = 0
KHE1 211748Z 18000KT 19/12 A303 RMK A01 T01930119  RH  062%=      5-min Rain = 0
KHE1 211749Z 16000KT 19/12 A303 RMK A01 T01910119  RH  063%=      5-min Rain = 0
KHE1 211750Z 16001KT 19/12 A303 RMK A01 T01920122  RH  064%=      5-min Rain = 0
KHE1 211751Z 19002KT 19/12 A303 RMK A01 T01940123  RH  063%=      5-min Rain = 0
KHE1 211752Z 16003KT 20/12 A303 RMK A01 T01970122  RH  062%=      5-min Rain = 0
KHE1 211753Z 16002KT 20/12 A303 RMK A01 T01970122  RH  062%=      5-min Rain = 0
KHE1 211754Z 20003KT 20/12 A303 RMK A01 T01970121  RH  062%=      5-min Rain = 0
KHE1 211755Z 23004KT 20/12 A3029 RMK A01 T01970123  RH  062%=      5-min Rain = 0
KHE1 211756Z 24003KT 20/12 A3029 RMK A01 T01990122  RH  061%=      5-min Rain = 0
KHE1 211757Z 23003KT 20/12 A3029 RMK A01 T01980122  RH  061%=      5-min Rain = 0
KHE1 211758Z 23005KT 20/12 A3029 RMK A01 T01980122  RH  061%=      5-min Rain = 0
KHE1 211759Z 22002KT 20/12 A3029 RMK A01 T01980122  RH  061%=      5-min Rain = 0
KHE1 211800Z 26001KT 20/12 A3029 RMK A01 T01980124  RH  062%=      5-min Rain = 0
KHE1 211801Z 25001KT 20/12 A3029 RMK A01 T01990123  RH  061%=      5-min Rain = 0
KHE1 211802Z 22004KT 20/12 A3029 RMK A01 T02000124  RH  061%=      5-min Rain = 0
KHE1 211803Z 21006KT 20/12 A3029 RMK A01 T02010122  RH  060%=      5-min Rain = 0
KHE1 211804Z 22006KT 20/12 A3029 RMK A01 T01990121  RH  061%=      5-min Rain = 0
KHE1 211805Z 22007KT 20/12 A3029 RMK A01 T01990121  RH  061%=      5-min Rain = 0
KHE1 211806Z 22006KT 20/12 A3029 RMK A01 T01980121  RH  061%=      5-min Rain = 0
KHE1 211807Z 22006KT 20/12 A3029 RMK A01 T01980121  RH  061%=      5-min Rain = 0
KHE1 211808Z 24005KT 20/12 A3029 RMK A01 T01970122  RH  062%=      5-min Rain = 0
KHE1 211809Z 24008KT 20/12 A3029 RMK A01 T01980121  RH  061%=      5-min Rain = 0
KHE1 211810Z 22007KT 20/12 A3029 RMK A01 T01990123  RH  062%=      5-min Rain = 0
KHE1 211811Z 21006KT 20/12 A3029 RMK A01 T02010122  RH  061%=      5-min Rain = 0
KHE1 211812Z 20005KT 20/12 A3028 RMK A01 T02010122  RH  060%=      5-min Rain = 0
KHE1 211813Z 19005KT 20/12 A3028 RMK A01 T02000122  RH  061%=      5-min Rain = 0
KHE1 211814Z 20005KT 20/12 A3028 RMK A01 T02000123  RH  061%=      5-min Rain = 0
KHE1 211815Z 22006KT 20/12 A3028 RMK A01 T02000122  RH  061%=      5-min Rain = 0
KHE1 211816Z 22004KT 20/12 A3028 RMK A01 T02000122  RH  061%=      5-min Rain = 0
KHE1 211817Z 24007KT 20/12 A3028 RMK A01 T02000122  RH  061%=      5-min Rain = 0
KHE1 211818Z 25008KT 20/12 A3028 RMK A01 T02000122  RH  061%=      5-min Rain = 0
KHE1 211819Z 26006KT 20/12 A3028 RMK A01 T02020122  RH  060%=      5-min Rain = 0
KHE1 211820Z 25005KT 20/12 A3028 RMK A01 T02020122  RH  060%=      5-min Rain = 0
KHE1 211821Z 23008KT 20/12 A3028 RMK A01 T02010122  RH  060%=      5-min Rain = 0
KHE1 211822Z 21007KT 20/12 A3028 RMK A01 T02000122  RH  061%=      5-min Rain = 0
KHE1 211823Z 20005KT 20/12 A3028 RMK A01 T02000122  RH  061%=      5-min Rain = 0
KHE1 211824Z 21003KT 20/12 A3027 RMK A01 T02000122  RH  061%=      5-min Rain = 0
KHE1 211825Z 19002KT 20/12 A3027 RMK A01 T02000121  RH  061%=      5-min Rain = 0
KHE1 211826Z 21003KT 20/12 A3027 RMK A01 T02010123  RH  061%=      5-min Rain = 0
KHE1 211827Z 22004KT 20/13 A3027 RMK A01 T02030126  RH  061%=      5-min Rain = 0
KHE1 211828Z 22006KT 21/12 A3027 RMK A01 T02050123  RH  059%=      5-min Rain = 0
KHE1 211829Z 21005KT 20/12 A3027 RMK A01 T02040122  RH  059%=      5-min Rain = 0
KHE1 211830Z 23005KT 20/12 A3027 RMK A01 T02030123  RH  060%=      5-min Rain = 0
KHE1 211831Z 26005KT 20/12 A3027 RMK A01 T02040124  RH  060%=      5-min Rain = 0
KHE1 211832Z 24007KT 21/12 A3026 RMK A01 T02060124  RH  059%=      5-min Rain = 0
KHE1 211833Z 21007KT 21/12 A3026 RMK A01 T02060123  RH  059%=      5-min Rain = 0
KHE1 211834Z 22005KT 21/12 A3026 RMK A01 T02060122  RH  059%=      5-min Rain = 0
KHE1 211835Z 22004KT 20/12 A3026 RMK A01 T02030121  RH  059%=      5-min Rain = 0
KHE1 211836Z 25005KT 20/12 A3026 RMK A01 T02000121  RH  060%=      5-min Rain = 0
KHE1 211837Z 27003KT 20/12 A3026 RMK A01 T01980120  RH  061%=      5-min Rain = 0
KHE1 211838Z 25004KT 20/12 A3026 RMK A01 T01970122  RH  062%=      5-min Rain = 0
KHE1 211839Z 24004KT 20/12 A3026 RMK A01 T01980122  RH  062%=      5-min Rain = 0
KHE1 211840Z 23004KT 20/12 A3026 RMK A01 T02000122  RH  061%=      5-min Rain = 0
KHE1 211841Z 23004KT 20/13 A3026 RMK A01 T02010126  RH  062%=      5-min Rain = 0
KHE1 211842Z 24002KT 21/12 A3026 RMK A01 T02050123  RH  059%=      5-min Rain = 0
KHE1 211843Z 20002KT 21/12 A3026 RMK A01 T02050123  RH  059%=      5-min Rain = 0
KHE1 211844Z 22003KT 21/12 A3026 RMK A01 T02060124  RH  059%=      5-min Rain = 0
KHE1 211845Z 21003KT 21/12 A3026 RMK A01 T02060122  RH  059%=      5-min Rain = 0
KHE1 211846Z 21005KT 21/12 A3026 RMK A01 T02060124  RH  059%=      5-min Rain = 0
KHE1 211847Z 18003KT 21/12 A3026 RMK A01 T02060124  RH  059%=      5-min Rain = 0
KHE1 211848Z 22003KT 21/13 A3026 RMK A01 T02080126  RH  059%=      5-min Rain = 0
KHE1 211849Z 24003KT 21/13 A3026 RMK A01 T02100125  RH  058%=      5-min Rain = 0
KHE1 211850Z 28005KT 21/13 A3026 RMK A01 T02110127  RH  059%=      5-min Rain = 0
KHE1 211851Z 27005KT 21/13 A3026 RMK A01 T02130126  RH  058%=      5-min Rain = 0
KHE1 211852Z 28005KT 21/13 A3026 RMK A01 T02130125  RH  057%=      5-min Rain = 0
KHE1 211853Z 30003KT 21/12 A3026 RMK A01 T02100124  RH  058%=      5-min Rain = 0
KHE1 211854Z 30003KT 21/13 A3026 RMK A01 T02090127  RH  059%=      5-min Rain = 0
KHE1 211855Z 31006KT 21/12 A3026 RMK A01 T02100124  RH  058%=      5-min Rain = 0
KHE1 211856Z 32005KT 21/13 A3025 RMK A01 T02100126  RH  059%=      5-min Rain = 0
KHE1 211857Z 33005KT 21/12 A3025 RMK A01 T02100124  RH  058%=      5-min Rain = 0
KHE1 211858Z 31006KT 21/12 A3025 RMK A01 T02080124  RH  059%=      5-min Rain = 0
KHE1 211859Z 28006KT 21/12 A3025 RMK A01 T02080124  RH  059%=      5-min Rain = 0
KHE1 211900Z 28006KT 21/12 A3025 RMK A01 T02080124  RH  058%=      5-min Rain = 0
KHE1 211901Z 28006KT 21/12 A3025 RMK A01 T02090122  RH  058%=      5-min Rain = 0
KHE1 211902Z 29005KT 21/12 A3025 RMK A01 T02060123  RH  059%=      5-min Rain = 0
KHE1 211903Z 30003KT 21/12 A3025 RMK A01 T02050123  RH  059%=      5-min Rain = 0
KHE1 211904Z 24004KT 20/12 A3025 RMK A01 T02040124  RH  060%=      5-min Rain = 0
KHE1 211905Z 28004KT 21/12 A3025 RMK A01 T02060123  RH  059%=      5-min Rain = 0
KHE1 211906Z 25004KT 21/12 A3025 RMK A01 T02060122  RH  059%=      5-min Rain = 0
KHE1 211907Z 24005KT 21/12 A3025 RMK A01 T02050121  RH  058%=      5-min Rain = 0
KHE1 211908Z 22006KT 21/12 A3025 RMK A01 T02050122  RH  059%=      5-min Rain = 0
KHE1 211909Z 21005KT 21/12 A3025 RMK A01 T02080124  RH  058%=      5-min Rain = 0
KHE1 211910Z 20004KT 21/12 A3025 RMK A01 T02120123  RH  057%=      5-min Rain = 0
KHE1 211911Z 24006KT 21/12 A3025 RMK A01 T02130124  RH  057%=      5-min Rain = 0
KHE1 211912Z 24005KT 21/12 A3025 RMK A01 T02140123  RH  056%=      5-min Rain = 0
KHE1 211913Z 25006KT 21/13 A3025 RMK A01 T02140125  RH  057%=      5-min Rain = 0
KHE1 211914Z 24006KT 22/12 A3024 RMK A01 T02160123  RH  056%=      5-min Rain = 0
KHE1 211915Z 24005KT 22/12 A3024 RMK A01 T02160122  RH  055%=      5-min Rain = 0
KHE1 211916Z 23005KT 22/13 A3024 RMK A01 T02150125  RH  057%=      5-min Rain = 0
KHE1 211917Z 20005KT 22/12 A3024 RMK A01 T02150124  RH  056%=      5-min Rain = 0
KHE1 211918Z 17005KT 21/12 A3024 RMK A01 T02140124  RH  056%=      5-min Rain = 0
KHE1 211919Z 19004KT 21/13 A3024 RMK A01 T02140125  RH  057%=      5-min Rain = 0
KHE1 211920Z 19003KT 22/12 A3024 RMK A01 T02150123  RH  056%=      5-min Rain = 0
KHE1 211921Z 21006KT 21/13 A3024 RMK A01 T02140125  RH  057%=      5-min Rain = 0
KHE1 211922Z 22005KT 21/12 A3024 RMK A01 T02140123  RH  056%=      5-min Rain = 0
KHE1 211923Z 20005KT 21/12 A3024 RMK A01 T02140124  RH  056%=      5-min Rain = 0
KHE1 211924Z 19005KT 21/12 A3024 RMK A01 T02140123  RH  056%=      5-min Rain = 0
KHE1 211925Z 22005KT 21/12 A3024 RMK A01 T02130123  RH  056%=      5-min Rain = 0
KHE1 211926Z 22005KT 21/12 A3024 RMK A01 T02120123  RH  057%=      5-min Rain = 0
KHE1 211927Z 25004KT 21/12 A3024 RMK A01 T02110123  RH  057%=      5-min Rain = 0
KHE1 211928Z 26005KT 21/12 A3024 RMK A01 T02100122  RH  057%=      5-min Rain = 0
KHE1 211929Z 25005KT 21/12 A3024 RMK A01 T02090124  RH  058%=      5-min Rain = 0
KHE1 211930Z 24006KT 21/12 A3024 RMK A01 T02100124  RH  058%=      5-min Rain = 0
KHE1 211931Z 21004KT 21/12 A3024 RMK A01 T02100123  RH  057%=      5-min Rain = 0
KHE1 211932Z 23006KT 21/13 A3024 RMK A01 T02110125  RH  058%=      5-min Rain = 0
KHE1 211933Z 24003KT 21/12 A3024 RMK A01 T02120123  RH  057%=      5-min Rain = 0
KHE1 211934Z 24004KT 21/12 A3024 RMK A01 T02110123  RH  057%=      5-min Rain = 0
KHE1 211935Z 23005KT 21/12 A3024 RMK A01 T02100123  RH  057%=      5-min Rain = 0
KHE1 211936Z 22005KT 21/12 A3024 RMK A01 T02100123  RH  057%=      5-min Rain = 0
KHE1 211937Z 21004KT 21/12 A3024 RMK A01 T02090123  RH  058%=      5-min Rain = 0
KHE1 211938Z 22005KT 21/12 A3023 RMK A01 T02090123  RH  058%=      5-min Rain = 0
KHE1 211939Z 21005KT 21/12 A3023 RMK A01 T02100124  RH  058%=      5-min Rain = 0
KHE1 211940Z 22003KT 21/12 A3023 RMK A01 T02110123  RH  057%=      5-min Rain = 0
KHE1 211941Z 22003KT 21/12 A3023 RMK A01 T02110124  RH  058%=      5-min Rain = 0
KHE1 211942Z 22003KT 21/12 A3023 RMK A01 T02100122  RH  057%=      5-min Rain = 0
KHE1 211943Z 24002KT 21/12 A3023 RMK A01 T02090123  RH  058%=      5-min Rain = 0
KHE1 211944Z 21003KT 21/12 A3023 RMK A01 T02090124  RH  058%=      5-min Rain = 0
KHE1 211945Z 17004KT 21/13 A3023 RMK A01 T02100125  RH  058%=      5-min Rain = 0
KHE1 211946Z 17003KT 21/12 A3023 RMK A01 T02100124  RH  058%=      5-min Rain = 0
KHE1 211947Z 19004KT 21/13 A3023 RMK A01 T02110125  RH  058%=      5-min Rain = 0
KHE1 211948Z 24005KT 21/13 A3023 RMK A01 T02120126  RH  058%=      5-min Rain = 0
KHE1 211949Z 24003KT 21/12 A3023 RMK A01 T02130123  RH  056%=      5-min Rain = 0
KHE1 211950Z 27004KT 21/12 A3023 RMK A01 T02130124  RH  057%=      5-min Rain = 0
KHE1 211951Z 26003KT 21/12 A3023 RMK A01 T02120124  RH  057%=      5-min Rain = 0
KHE1 211952Z 26003KT 21/13 A3023 RMK A01 T02120126  RH  058%=      5-min Rain = 0
KHE1 211953Z 25002KT 21/13 A3023 RMK A01 T02130126  RH  058%=      5-min Rain = 0
KHE1 211954Z 25004KT 21/13 A3023 RMK A01 T02140126  RH  057%=      5-min Rain = 0
KHE1 211955Z 28003KT 22/13 A3023 RMK A01 T02160126  RH  057%=      5-min Rain = 0
KHE1 211956Z 29003KT 22/13 A3023 RMK A01 T02160125  RH  056%=      5-min Rain = 0
KHE1 211957Z 32004KT 22/13 A3023 RMK A01 T02150125  RH  057%=      5-min Rain = 0
KHE1 211958Z 29004KT 21/13 A3023 RMK A01 T02130125  RH  057%=      5-min Rain = 0
KHE1 211959Z 29003KT 21/13 A3023 RMK A01 T02120125  RH  057%=      5-min Rain = 0
KHE1 212000Z 29003KT 21/12 A3023 RMK A01 T02110123  RH  057%=      5-min Rain = 0
KHE1 212001Z 27002KT 21/12 A3023 RMK A01 T02090124  RH  058%=      5-min Rain = 0
KHE1 212002Z 25001KT 21/12 A3023 RMK A01 T02090123  RH  058%=      5-min Rain = 0
KHE1 212003Z 21001KT 21/12 A3023 RMK A01 T02090124  RH  058%=      5-min Rain = 0
KHE1 212004Z 23001KT 21/13 A3023 RMK A01 T02110125  RH  058%=      5-min Rain = 0
KHE1 212005Z 25001KT 21/13 A3022 RMK A01 T02130127  RH  058%=      5-min Rain = 0
KHE1 212006Z 26001KT 22/13 A3022 RMK A01 T02150126  RH  057%=      5-min Rain = 0
KHE1 212007Z 24004KT 22/13 A3022 RMK A01 T02170126  RH  056%=      5-min Rain = 0
KHE1 212008Z 31004KT 22/13 A3022 RMK A01 T02170126  RH  056%=      5-min Rain = 0
KHE1 212009Z 34005KT 22/13 A3022 RMK A01 T02180127  RH  056%=      5-min Rain = 0
KHE1 212010Z 34006KT 22/13 A3022 RMK A01 T02180126  RH  056%=      5-min Rain = 0
KHE1 212011Z 34006KT 22/13 A3022 RMK A01 T02180125  RH  055%=      5-min Rain = 0
KHE1 212012Z 32003KT 22/13 A3022 RMK A01 T02180126  RH  056%=      5-min Rain = 0
KHE1 212013Z 34005KT 22/13 A3022 RMK A01 T02180126  RH  056%=      5-min Rain = 0
KHE1 212014Z 31004KT 22/13 A3022 RMK A01 T02170127  RH  056%=      5-min Rain = 0
KHE1 212015Z 28003KT 22/13 A3022 RMK A01 T02170125  RH  056%=      5-min Rain = 0
KHE1 212016Z 30002KT 22/12 A3022 RMK A01 T02160124  RH  056%=      5-min Rain = 0
KHE1 212017Z 31004KT 22/13 A3022 RMK A01 T02150126  RH  057%=      5-min Rain = 0
KHE1 212018Z 32003KT 22/13 A3022 RMK A01 T02150125  RH  057%=      5-min Rain = 0
KHE1 212019Z 32003KT 22/13 A3022 RMK A01 T02150127  RH  057%=      5-min Rain = 0
KHE1 212020Z 35002KT 22/13 A3022 RMK A01 T02150125  RH  057%=      5-min Rain = 0
KHE1 212021Z 29003KT 22/13 A3022 RMK A01 T02150126  RH  057%=      5-min Rain = 0
KHE1 212022Z 18003KT 22/13 A3022 RMK A01 T02170127  RH  057%=      5-min Rain = 0
KHE1 212023Z 24002KT 22/13 A3022 RMK A01 T02180127  RH  056%=      5-min Rain = 0
KHE1 212024Z 28004KT 22/13 A3022 RMK A01 T02180126  RH  056%=      5-min Rain = 0
KHE1 212025Z 30005KT 22/13 A3022 RMK A01 T02180125  RH  056%=      5-min Rain = 0
KHE1 212026Z 30005KT 22/13 A3022 RMK A01 T02160126  RH  056%=      5-min Rain = 0
KHE1 212027Z 28007KT 22/13 A3022 RMK A01 T02160126  RH  056%=      5-min Rain = 0
KHE1 212028Z 25005KT 22/13 A3022 RMK A01 T02160125  RH  056%=      5-min Rain = 0
KHE1 212029Z 28006KT 22/13 A3022 RMK A01 T02150125  RH  057%=      5-min Rain = 0
KHE1 212030Z 26004KT 21/12 A3022 RMK A01 T02140124  RH  056%=      5-min Rain = 0
KHE1 212031Z 28004KT 21/13 A3022 RMK A01 T02130125  RH  057%=      5-min Rain = 0
KHE1 212032Z 29005KT 21/13 A3021 RMK A01 T02120125  RH  057%=      5-min Rain = 0
KHE1 212033Z 30004KT 21/12 A3021 RMK A01 T02120124  RH  057%=      5-min Rain = 0
KHE1 212034Z 29003KT 21/13 A3021 RMK A01 T02110125  RH  058%=      5-min Rain = 0
KHE1 212035Z 28002KT 21/13 A3021 RMK A01 T02120126  RH  058%=      5-min Rain = 0
KHE1 212036Z 27005KT 21/13 A3021 RMK A01 T02110125  RH  058%=      5-min Rain = 0
KHE1 212037Z 28004KT 21/13 A3021 RMK A01 T02120125  RH  058%=      5-min Rain = 0
KHE1 212038Z 27004KT 21/13 A3021 RMK A01 T02120125  RH  058%=      5-min Rain = 0
KHE1 212039Z 28003KT 21/13 A3021 RMK A01 T02120127  RH  058%=      5-min Rain = 0
KHE1 212040Z 29004KT 21/13 A3021 RMK A01 T02130125  RH  057%=      5-min Rain = 0
KHE1 212041Z 30003KT 21/13 A3021 RMK A01 T02130125  RH  057%=      5-min Rain = 0
KHE1 212042Z 31001KT 21/13 A3021 RMK A01 T02130126  RH  057%=      5-min Rain = 0
KHE1 212043Z 34001KT 21/13 A3021 RMK A01 T02130126  RH  057%=      5-min Rain = 0
KHE1 212044Z 00001KT 21/12 A3021 RMK A01 T02130124  RH  057%=      5-min Rain = 0
KHE1 212045Z 04001KT 21/13 A3021 RMK A01 T02140125  RH  057%=      5-min Rain = 0
KHE1 212046Z 00000KT 21/13 A3021 RMK A01 T02130125  RH  057%=      5-min Rain = 0
KHE1 212047Z 34002KT 21/13 A3021 RMK A01 T02140126  RH  057%=      5-min Rain = 0
KHE1 212048Z 33003KT 22/13 A3021 RMK A01 T02160127  RH  057%=      5-min Rain = 0
KHE1 212049Z 31003KT 22/13 A3021 RMK A01 T02170128  RH  057%=      5-min Rain = 0
KHE1 212050Z 30002KT 22/13 A3021 RMK A01 T02170127  RH  057%=      5-min Rain = 0
KHE1 212051Z 30001KT 22/13 A3021 RMK A01 T02180127  RH  056%=      5-min Rain = 0
KHE1 212052Z 29003KT 22/13 A302 RMK A01 T02190127  RH  056%=      5-min Rain = 0
KHE1 212053Z 29004KT 22/13 A302 RMK A01 T02190127  RH  056%=      5-min Rain = 0
KHE1 212054Z 28004KT 22/13 A302 RMK A01 T02190125  RH  055%=      5-min Rain = 0
KHE1 212055Z 26003KT 22/13 A302 RMK A01 T02180126  RH  056%=      5-min Rain = 0
KHE1 212056Z 25005KT 22/13 A302 RMK A01 T02170126  RH  056%=      5-min Rain = 0
KHE1 212057Z 25003KT 22/13 A302 RMK A01 T02170125  RH  056%=      5-min Rain = 0
KHE1 212058Z 26004KT 22/13 A302 RMK A01 T02160126  RH  056%=      5-min Rain = 0
KHE1 212059Z 26005KT 22/13 A302 RMK A01 T02160126  RH  057%=      5-min Rain = 0
KHE1 212100Z 26005KT 22/13 A302 RMK A01 T02150126  RH  057%=      5-min Rain = 0
KHE1 212101Z 24005KT 21/13 A302 RMK A01 T02140125  RH  057%=      5-min Rain = 0
KHE1 212102Z 26002KT 21/12 A302 RMK A01 T02140124  RH  057%=      5-min Rain = 0
KHE1 212103Z 27002KT 21/13 A302 RMK A01 T02130125  RH  057%=      5-min Rain = 0
KHE1 212104Z 25002KT 21/13 A302 RMK A01 T02130125  RH  057%=      5-min Rain = 0
KHE1 212105Z 28001KT 21/13 A302 RMK A01 T02140125  RH  057%=      5-min Rain = 0
KHE1 212106Z 26001KT 21/13 A302 RMK A01 T02140125  RH  057%=      5-min Rain = 0
KHE1 212107Z 22001KT 21/12 A302 RMK A01 T02140124  RH  056%=      5-min Rain = 0
KHE1 212108Z 17003KT 22/13 A302 RMK A01 T02150125  RH  057%=      5-min Rain = 0
KHE1 212109Z 18004KT 22/13 A302 RMK A01 T02170125  RH  056%=      5-min Rain = 0
KHE1 212110Z 18004KT 22/13 A302 RMK A01 T02180126  RH  056%=      5-min Rain = 0
KHE1 212111Z 18004KT 22/13 A302 RMK A01 T02190127  RH  056%=      5-min Rain = 0
KHE1 212112Z 18002KT 22/13 A302 RMK A01 T02200126  RH  055%=      5-min Rain = 0
KHE1 212113Z 20001KT 22/13 A302 RMK A01 T02210125  RH  054%=      5-min Rain = 0
KHE1 212114Z 22002KT 22/12 A302 RMK A01 T02200124  RH  054%=      5-min Rain = 0
KHE1 212115Z 18003KT 22/13 A302 RMK A01 T02210127  RH  055%=      5-min Rain = 0
KHE1 212116Z 17002KT 22/13 A302 RMK A01 T02210126  RH  055%=      5-min Rain = 0
KHE1 212117Z 17002KT 22/13 A302 RMK A01 T02210127  RH  055%=      5-min Rain = 0
KHE1 212118Z 24003KT 22/13 A302 RMK A01 T02210126  RH  055%=      5-min Rain = 0
KHE1 212119Z 25002KT 22/13 A302 RMK A01 T02190125  RH  055%=      5-min Rain = 0
KHE1 212120Z 26001KT 22/13 A302 RMK A01 T02180126  RH  056%=      5-min Rain = 0
KHE1 212121Z 17002KT 22/13 A302 RMK A01 T02180126  RH  056%=      5-min Rain = 0
KHE1 212122Z 20003KT 22/13 A302 RMK A01 T02180126  RH  056%=      5-min Rain = 0
KHE1 212123Z 18003KT 22/13 A302 RMK A01 T02170127  RH  057%=      5-min Rain = 0
KHE1 212124Z 18003KT 22/13 A302 RMK A01 T02160126  RH  056%=      5-min Rain = 0
KHE1 212125Z 20002KT 22/13 A302 RMK A01 T02160125  RH  056%=      5-min Rain = 0
KHE1 212126Z 20001KT 22/13 A302 RMK A01 T02160126  RH  057%=      5-min Rain = 0
KHE1 212127Z 21000KT 22/13 A302 RMK A01 T02160125  RH  056%=      5-min Rain = 0
KHE1 212128Z 19000KT 22/13 A302 RMK A01 T02170126  RH  056%=      5-min Rain = 0
KHE1 212129Z 19000KT 22/13 A302 RMK A01 T02180127  RH  056%=      5-min Rain = 0
KHE1 212130Z 25001KT 22/13 A302 RMK A01 T02180126  RH  056%=      5-min Rain = 0
KHE1 212131Z 24002KT 22/13 A302 RMK A01 T02180126  RH  056%=      5-min Rain = 0
KHE1 212132Z 23002KT 22/13 A302 RMK A01 T02190127  RH  056%=      5-min Rain = 0
KHE1 212133Z 26003KT 22/13 A302 RMK A01 T02200127  RH  056%=      5-min Rain = 0
KHE1 212134Z 25002KT 22/13 A302 RMK A01 T02200125  RH  055%=      5-min Rain = 0
KHE1 212135Z 25001KT 22/13 A302 RMK A01 T02200127  RH  055%=      5-min Rain = 0
KHE1 212136Z 24001KT 22/13 A302 RMK A01 T02210126  RH  055%=      5-min Rain = 0
KHE1 212137Z 29001KT 22/13 A302 RMK A01 T02220126  RH  054%=      5-min Rain = 0
KHE1 212138Z 01000KT 22/13 A302 RMK A01 T02230126  RH  054%=      5-min Rain = 0
KHE1 212139Z 20001KT 22/13 A302 RMK A01 T02240127  RH  054%=      5-min Rain = 0
KHE1 212140Z 09002KT 22/13 A302 RMK A01 T02240128  RH  055%=      5-min Rain = 0
KHE1 212141Z 11002KT 22/13 A3019 RMK A01 T02230126  RH  054%=      5-min Rain = 0
KHE1 212142Z 14002KT 22/13 A3019 RMK A01 T02210126  RH  055%=      5-min Rain = 0
KHE1 212143Z 14001KT 22/13 A3019 RMK A01 T02190125  RH  055%=      5-min Rain = 0
KHE1 212144Z 14001KT 22/12 A3019 RMK A01 T02180124  RH  055%=      5-min Rain = 0
KHE1 212145Z 12002KT 22/12 A3019 RMK A01 T02170124  RH  056%=      5-min Rain = 0
KHE1 212146Z 12002KT 22/13 A3019 RMK A01 T02160125  RH  056%=      5-min Rain = 0
KHE1 212147Z 12001KT 22/12 A3019 RMK A01 T02150124  RH  056%=      5-min Rain = 0
KHE1 212148Z 10000KT 21/12 A3019 RMK A01 T02140124  RH  056%=      5-min Rain = 0
KHE1 212149Z 00000KT 21/12 A3019 RMK A01 T02140124  RH  057%=      5-min Rain = 0
KHE1 212150Z 00000KT 21/13 A3019 RMK A01 T02140125  RH  057%=      5-min Rain = 0
KHE1 212151Z 00000KT 21/13 A3019 RMK A01 T02140125  RH  057%=      5-min Rain = 0
KHE1 212152Z 00000KT 22/13 A3019 RMK A01 T02150125  RH  057%=      5-min Rain = 0
KHE1 212153Z 00000KT 21/13 A3019 RMK A01 T02140125  RH  057%=      5-min Rain = 0
KHE1 212154Z 00000KT 22/13 A3019 RMK A01 T02150126  RH  057%=      5-min Rain = 0
KHE1 212155Z 00000KT 22/13 A3019 RMK A01 T02150125  RH  057%=      5-min Rain = 0
KHE1 212156Z 00000KT 22/13 A3019 RMK A01 T02150126  RH  057%=      5-min Rain = 0
KHE1 212157Z 00000KT 22/13 A3019 RMK A01 T02160125  RH  056%=      5-min Rain = 0
KHE1 212158Z 00000KT 22/13 A3019 RMK A01 T02160126  RH  056%=      5-min Rain = 0
KHE1 212159Z 00000KT 22/13 A3019 RMK A01 T02160126  RH  056%=      5-min Rain = 0
KHE1 212200Z 00000KT 22/13 A3019 RMK A01 T02170126  RH  056%=      5-min Rain = 0
KHE1 212201Z 00000KT 22/13 A3018 RMK A01 T02170126  RH  056%=      5-min Rain = 0
KHE1 212202Z 31000KT 22/13 A3018 RMK A01 T02170125  RH  056%=      5-min Rain = 0
KHE1 212203Z 32002KT 22/13 A3018 RMK A01 T02170126  RH  056%=      5-min Rain = 0
KHE1 212204Z 33001KT 22/13 A3018 RMK A01 T02180126  RH  056%=      5-min Rain = 0
KHE1 212205Z 36002KT 22/13 A3018 RMK A01 T02180128  RH  056%=      5-min Rain = 0
KHE1 212206Z 01003KT 22/13 A3018 RMK A01 T02180128  RH  057%=      5-min Rain = 0
KHE1 212207Z 35003KT 22/13 A3018 RMK A01 T02190128  RH  056%=      5-min Rain = 0
KHE1 212208Z 00003KT 22/13 A3018 RMK A01 T02170127  RH  056%=      5-min Rain = 0
KHE1 212209Z 36003KT 22/13 A3018 RMK A01 T02160126  RH  056%=      5-min Rain = 0
KHE1 212210Z 36003KT 22/13 A3018 RMK A01 T02160128  RH  058%=      5-min Rain = 0
KHE1 212211Z 35003KT 22/13 A3018 RMK A01 T02160126  RH  057%=      5-min Rain = 0
KHE1 212212Z 34003KT 22/13 A3018 RMK A01 T02160126  RH  057%=      5-min Rain = 0
KHE1 212213Z 34004KT 22/13 A3018 RMK A01 T02150126  RH  057%=      5-min Rain = 0
KHE1 212214Z 34004KT 22/13 A3018 RMK A01 T02150126  RH  057%=      5-min Rain = 0
KHE1 212215Z 34003KT 22/13 A3018 RMK A01 T02150127  RH  057%=      5-min Rain = 0
KHE1 212216Z 35003KT 22/13 A3018 RMK A01 T02150126  RH  057%=      5-min Rain = 0
KHE1 212217Z 35003KT 22/13 A3018 RMK A01 T02150127  RH  057%=      5-min Rain = 0
KHE1 212218Z 35003KT 22/13 A3018 RMK A01 T02150128  RH  057%=      5-min Rain = 0
KHE1 212219Z 35003KT 22/13 A3018 RMK A01 T02150127  RH  057%=      5-min Rain = 0
KHE1 212220Z 35003KT 22/13 A3018 RMK A01 T02150126  RH  057%=      5-min Rain = 0
KHE1 212221Z 36003KT 22/13 A3018 RMK A01 T02160127  RH  057%=      5-min Rain = 0
KHE1 212222Z 01003KT 22/13 A3018 RMK A01 T02150128  RH  057%=      5-min Rain = 0
KHE1 212223Z 01003KT 22/13 A3018 RMK A01 T02150128  RH  058%=      5-min Rain = 0
KHE1 212224Z 04004KT 22/13 A3018 RMK A01 T02150129  RH  058%=      5-min Rain = 0
KHE1 212225Z 05003KT 21/13 A3018 RMK A01 T02140127  RH  057%=      5-min Rain = 0
KHE1 212226Z 06002KT 21/13 A3018 RMK A01 T02140125  RH  057%=      5-min Rain = 0
KHE1 212227Z 07003KT 21/13 A3018 RMK A01 T02140126  RH  057%=      5-min Rain = 0
KHE1 212228Z 08003KT 21/13 A3018 RMK A01 T02140127  RH  058%=      5-min Rain = 0
KHE1 212229Z 08003KT 21/13 A3018 RMK A01 T02130126  RH  057%=      5-min Rain = 0
KHE1 212230Z 08002KT 21/13 A3018 RMK A01 T02130126  RH  058%=      5-min Rain = 0
KHE1 212231Z 06002KT 21/13 A3018 RMK A01 T02130127  RH  058%=      5-min Rain = 0
KHE1 212232Z 04003KT 21/13 A3018 RMK A01 T02140128  RH  058%=      5-min Rain = 0
KHE1 212233Z 04004KT 21/13 A3018 RMK A01 T02140128  RH  058%=      5-min Rain = 0
KHE1 212234Z 03005KT 21/13 A3018 RMK A01 T02140129  RH  058%=      5-min Rain = 0
KHE1 212235Z 03005KT 21/13 A3018 RMK A01 T02130129  RH  058%=      5-min Rain = 0
KHE1 212236Z 03006KT 21/13 A3018 RMK A01 T02120129  RH  059%=      5-min Rain = 0
KHE1 212237Z 03006KT 21/13 A3018 RMK A01 T02120128  RH  059%=      5-min Rain = 0
KHE1 212238Z 03006KT 21/13 A3018 RMK A01 T02110127  RH  059%=      5-min Rain = 0
KHE1 212239Z 03005KT 21/13 A3018 RMK A01 T02100128  RH  059%=      5-min Rain = 0
KHE1 212240Z 03006KT 21/13 A3018 RMK A01 T02110129  RH  060%=      5-min Rain = 0
KHE1 212241Z 03005KT 21/13 A3018 RMK A01 T02100129  RH  060%=      5-min Rain = 0
KHE1 212242Z 02006KT 21/13 A3018 RMK A01 T02090129  RH  060%=      5-min Rain = 0
KHE1 212243Z 03006KT 21/13 A3018 RMK A01 T02090129  RH  060%=      5-min Rain = 0
KHE1 212244Z 02005KT 21/13 A3018 RMK A01 T02080128  RH  060%=      5-min Rain = 0
KHE1 212245Z 02005KT 21/13 A3018 RMK A01 T02070129  RH  061%=      5-min Rain = 0
KHE1 212246Z 02006KT 21/13 A3018 RMK A01 T02070129  RH  061%=      5-min Rain = 0
KHE1 212247Z 02006KT 21/13 A3018 RMK A01 T02070128  RH  061%=      5-min Rain = 0
KHE1 212248Z 02006KT 21/13 A3018 RMK A01 T02060129  RH  061%=      5-min Rain = 0
KHE1 212249Z 02006KT 21/13 A3018 RMK A01 T02060129  RH  061%=      5-min Rain = 0
KHE1 212250Z 02006KT 21/13 A3018 RMK A01 T02050129  RH  061%=      5-min Rain = 0
KHE1 212251Z 02007KT 21/13 A3018 RMK A01 T02050129  RH  061%=      5-min Rain = 0
KHE1 212252Z 03006KT 21/13 A3018 RMK A01 T02050128  RH  061%=      5-min Rain = 0
KHE1 212253Z 03006KT 21/13 A3018 RMK A01 T02050127  RH  061%=      5-min Rain = 0
KHE1 212254Z 02005KT 21/13 A3018 RMK A01 T02050127  RH  061%=      5-min Rain = 0
KHE1 212255Z 02006KT 21/13 A3018 RMK A01 T02050128  RH  061%=      5-min Rain = 0
KHE1 212256Z 02006KT 20/13 A3018 RMK A01 T02040128  RH  062%=      5-min Rain = 0
KHE1 212257Z 02006KT 20/13 A3018 RMK A01 T02040128  RH  062%=      5-min Rain = 0
KHE1 212258Z 02006KT 20/13 A3018 RMK A01 T02030128  RH  062%=      5-min Rain = 0
KHE1 212259Z 02006KT 20/13 A3018 RMK A01 T02030128  RH  062%=      5-min Rain = 0
KHE1 212300Z 02006KT 20/13 A3018 RMK A01 T02020128  RH  062%=      5-min Rain = 0
KHE1 212301Z 03006KT 20/13 A3018 RMK A01 T02020128  RH  062%=      5-min Rain = 0
KHE1 212302Z 02005KT 20/13 A3018 RMK A01 T02010128  RH  062%=      5-min Rain = 0
KHE1 212303Z 02006KT 20/13 A3018 RMK A01 T02010127  RH  063%=      5-min Rain = 0
KHE1 212304Z 02006KT 20/13 A3018 RMK A01 T02010127  RH  063%=      5-min Rain = 0
KHE1 212305Z 03006KT 20/13 A3018 RMK A01 T02000127  RH  063%=      5-min Rain = 0
KHE1 212306Z 02006KT 20/13 A3018 RMK A01 T02000127  RH  063%=      5-min Rain = 0
KHE1 212307Z 02006KT 20/13 A3018 RMK A01 T02000127  RH  063%=      5-min Rain = 0
KHE1 212308Z 02006KT 20/13 A3018 RMK A01 T01990127  RH  063%=      5-min Rain = 0
KHE1 212309Z 02006KT 20/13 A3018 RMK A01 T01980127  RH  063%=      5-min Rain = 0
KHE1 212310Z 02006KT 20/13 A3018 RMK A01 T01970127  RH  064%=      5-min Rain = 0
KHE1 212311Z 02006KT 20/13 A3018 RMK A01 T01970127  RH  064%=      5-min Rain = 0
KHE1 212312Z 02006KT 20/13 A3018 RMK A01 T01960127  RH  064%=      5-min Rain = 0
KHE1 212313Z 02006KT 20/13 A3018 RMK A01 T01950127  RH  065%=      5-min Rain = 0
KHE1 212314Z 02006KT 19/13 A3018 RMK A01 T01940127  RH  065%=      5-min Rain = 0
KHE1 212315Z 03006KT 19/13 A3018 RMK A01 T01940127  RH  065%=      5-min Rain = 0
KHE1 212316Z 03006KT 19/13 A3018 RMK A01 T01930126  RH  065%=      5-min Rain = 0
KHE1 212317Z 03006KT 19/13 A3018 RMK A01 T01930126  RH  065%=      5-min Rain = 0
KHE1 212318Z 03006KT 19/13 A3018 RMK A01 T01920126  RH  065%=      5-min Rain = 0
KHE1 212319Z 03006KT 19/13 A3018 RMK A01 T01920126  RH  066%=      5-min Rain = 0
KHE1 212320Z 03006KT 19/13 A3018 RMK A01 T01910126  RH  066%=      5-min Rain = 0
KHE1 212321Z 03006KT 19/13 A3018 RMK A01 T01910126  RH  066%=      5-min Rain = 0
KHE1 212322Z 03006KT 19/13 A3018 RMK A01 T01910126  RH  066%=      5-min Rain = 0
KHE1 212323Z 03006KT 19/13 A3018 RMK A01 T01910126  RH  066%=      5-min Rain = 0
KHE1 212324Z 03005KT 19/13 A3018 RMK A01 T01900126  RH  066%=      5-min Rain = 0
KHE1 212325Z 03005KT 19/13 A3018 RMK A01 T01900125  RH  066%=      5-min Rain = 0
KHE1 212326Z 03005KT 19/13 A3018 RMK A01 T01900125  RH  066%=      5-min Rain = 0
KHE1 212327Z 03005KT 19/13 A3018 RMK A01 T01890125  RH  066%=      5-min Rain = 0
KHE1 212328Z 03005KT 19/13 A3018 RMK A01 T01890125  RH  067%=      5-min Rain = 0
KHE1 212329Z 03005KT 19/13 A3018 RMK A01 T01880125  RH  067%=      5-min Rain = 0
KHE1 212330Z 03006KT 19/13 A3018 RMK A01 T01880125  RH  067%=      5-min Rain = 0
KHE1 212331Z 03005KT 19/13 A3018 RMK A01 T01870125  RH  067%=      5-min Rain = 0
KHE1 212332Z 03006KT 19/13 A3018 RMK A01 T01860125  RH  067%=      5-min Rain = 0
KHE1 212333Z 03006KT 19/13 A3018 RMK A01 T01860125  RH  067%=      5-min Rain = 0
KHE1 212334Z 03006KT 19/13 A3018 RMK A01 T01860125  RH  068%=      5-min Rain = 0
KHE1 212335Z 03006KT 19/13 A3018 RMK A01 T01850125  RH  068%=      5-min Rain = 0
KHE1 212336Z 04006KT 19/13 A3018 RMK A01 T01850125  RH  068%=      5-min Rain = 0
KHE1 212337Z 04006KT 18/13 A3018 RMK A01 T01840125  RH  068%=      5-min Rain = 0
KHE1 212338Z 04006KT 18/13 A3018 RMK A01 T01840125  RH  068%=      5-min Rain = 0
KHE1 212339Z 04006KT 18/13 A3018 RMK A01 T01830125  RH  069%=      5-min Rain = 0
KHE1 212340Z 04006KT 18/13 A3018 RMK A01 T01830125  RH  069%=      5-min Rain = 0
KHE1 212341Z 05006KT 18/13 A3018 RMK A01 T01830125  RH  069%=      5-min Rain = 0
KHE1 212342Z 05006KT 18/13 A3018 RMK A01 T01830125  RH  069%=      5-min Rain = 0
KHE1 212343Z 05006KT 18/13 A3018 RMK A01 T01820125  RH  069%=      5-min Rain = 0
KHE1 212344Z 04006KT 18/13 A3018 RMK A01 T01820125  RH  069%=      5-min Rain = 0
KHE1 212345Z 04006KT 18/13 A3018 RMK A01 T01820125  RH  069%=      5-min Rain = 0
KHE1 212346Z 04006KT 18/13 A3018 RMK A01 T01820125  RH  070%=      5-min Rain = 0
KHE1 212347Z 04006KT 18/13 A3018 RMK A01 T01820125  RH  070%=      5-min Rain = 0
KHE1 212348Z 04006KT 18/13 A3018 RMK A01 T01810125  RH  070%=      5-min Rain = 0
KHE1 212349Z 04006KT 18/13 A3018 RMK A01 T01810125  RH  070%=      5-min Rain = 0
KHE1 212350Z 04006KT 18/13 A3018 RMK A01 T01810125  RH  070%=      5-min Rain = 0
KHE1 212351Z 04006KT 18/12 A3018 RMK A01 T01800124  RH  070%=      5-min Rain = 0
KHE1 212352Z 04006KT 18/12 A3018 RMK A01 T01800124  RH  070%=      5-min Rain = 0
KHE1 212353Z 04006KT 18/12 A3018 RMK A01 T01800124  RH  070%=      5-min Rain = 0
KHE1 212354Z 04006KT 18/12 A3018 RMK A01 T01790124  RH  070%=      5-min Rain = 0
KHE1 212355Z 04006KT 18/12 A3018 RMK A01 T01790124  RH  070%=      5-min Rain = 0
KHE1 212356Z 04006KT 18/12 A3018 RMK A01 T01780124  RH  070%=      5-min Rain = 0
KHE1 212357Z 04006KT 18/12 A3018 RMK A01 T01780124  RH  071%=      5-min Rain = 0
KHE1 212358Z 04006KT 18/12 A3018 RMK A01 T01780124  RH  071%=      5-min Rain = 0
KHE1 212359Z 04006KT 18/12 A3018 RMK A01 T01770124  RH  071%=      5-min Rain = 0
KHE1 220000Z 04006KT 18/12 A3018 RMK A01 T01770124  RH  071%=      5-min Rain = 0
KHE1 220001Z 04006KT 18/12 A3018 RMK A01 T01760123  RH  071%=      5-min Rain = 0
KHE1 220002Z 03006KT 18/12 A3018 RMK A01 T01750123  RH  071%=      5-min Rain = 0
KHE1 220003Z 03006KT 18/12 A3018 RMK A01 T01750123  RH  072%=      5-min Rain = 0
KHE1 220004Z 03006KT 17/12 A3018 RMK A01 T01740123  RH  072%=      5-min Rain = 0
KHE1 220005Z 03006KT 17/12 A3018 RMK A01 T01740123  RH  072%=      5-min Rain = 0
KHE1 220006Z 03006KT 17/12 A3018 RMK A01 T01740123  RH  072%=      5-min Rain = 0
KHE1 220007Z 03006KT 17/12 A3018 RMK A01 T01740123  RH  072%=      5-min Rain = 0
KHE1 220008Z 03006KT 17/12 A3018 RMK A01 T01730122  RH  072%=      5-min Rain = 0
KHE1 220009Z 03006KT 17/12 A3018 RMK A01 T01720122  RH  072%=      5-min Rain = 0
KHE1 220010Z 03006KT 17/12 A3018 RMK A01 T01720123  RH  073%=      5-min Rain = 0
KHE1 220011Z 03006KT 17/12 A3018 RMK A01 T01720123  RH  073%=      5-min Rain = 0
KHE1 220012Z 03006KT 17/12 A3018 RMK A01 T01720123  RH  073%=      5-min Rain = 0
KHE1 220013Z 03006KT 17/12 A3018 RMK A01 T01720123  RH  073%=      5-min Rain = 0
KHE1 220014Z 03006KT 17/12 A3018 RMK A01 T01720123  RH  073%=      5-min Rain = 0
KHE1 220015Z 03006KT 17/12 A3018 RMK A01 T01720122  RH  073%=      5-min Rain = 0
KHE1 220016Z 03006KT 17/12 A3018 RMK A01 T01720122  RH  073%=      5-min Rain = 0
KHE1 220017Z 03006KT 17/12 A3018 RMK A01 T01720122  RH  073%=      5-min Rain = 0
KHE1 220018Z 03007KT 17/12 A3018 RMK A01 T01720123  RH  073%=      5-min Rain = 0
KHE1 220019Z 03007KT 17/12 A3018 RMK A01 T01720123  RH  073%=      5-min Rain = 0
KHE1 220020Z 03007KT 17/12 A3018 RMK A01 T01720123  RH  073%=      5-min Rain = 0
KHE1 220021Z 03007KT 17/12 A3018 RMK A01 T01720123  RH  073%=      5-min Rain = 0
KHE1 220022Z 03008KT 17/12 A3018 RMK A01 T01710123  RH  073%=      5-min Rain = 0
KHE1 220023Z 03009KT 17/12 A3018 RMK A01 T01710123  RH  073%=      5-min Rain = 0
KHE1 220024Z 03010KT 17/12 A3018 RMK A01 T01710124  RH  074%=      5-min Rain = 0
KHE1 220025Z 03012KT 17/13 A3018 RMK A01 T01730125  RH  074%=      5-min Rain = 0
KHE1 220026Z 03009KT 18/13 A3018 RMK A01 T01760126  RH  072%=      5-min Rain = 0
KHE1 220027Z 02010KT 18/13 A3018 RMK A01 T01770126  RH  072%=      5-min Rain = 0
KHE1 220028Z 02009KT 18/13 A3018 RMK A01 T01770126  RH  072%=      5-min Rain = 0
KHE1 220029Z 03009KT 18/13 A3018 RMK A01 T01760126  RH  072%=      5-min Rain = 0
KHE1 220030Z 03008KT 18/13 A3018 RMK A01 T01760126  RH  072%=      5-min Rain = 0
KHE1 220031Z 03009KT 18/13 A3018 RMK A01 T01750125  RH  073%=      5-min Rain = 0
KHE1 220032Z 03008KT 17/13 A3018 RMK A01 T01740125  RH  073%=      5-min Rain = 0
KHE1 220033Z 04009KT 17/13 A3018 RMK A01 T01740125  RH  073%=      5-min Rain = 0
KHE1 220034Z 03008KT 17/13 A3018 RMK A01 T01740125  RH  073%=      5-min Rain = 0
KHE1 220035Z 03008KT 17/13 A3018 RMK A01 T01730125  RH  073%=      5-min Rain = 0
KHE1 220036Z 03007KT 17/13 A3018 RMK A01 T01720125  RH  073%=      5-min Rain = 0
KHE1 220037Z 03008KT 17/12 A3018 RMK A01 T01720124  RH  074%=      5-min Rain = 0
KHE1 220038Z 04008KT 17/12 A3018 RMK A01 T01710124  RH  074%=      5-min Rain = 0
KHE1 220039Z 04008KT 17/12 A3018 RMK A01 T01710124  RH  074%=      5-min Rain = 0
KHE1 220040Z 04008KT 17/12 A3018 RMK A01 T01710124  RH  074%=      5-min Rain = 0
KHE1 220041Z 04008KT 17/12 A3018 RMK A01 T01710124  RH  074%=      5-min Rain = 0
KHE1 220042Z 04008KT 17/12 A3018 RMK A01 T01710124  RH  074%=      5-min Rain = 0
KHE1 220043Z 04008KT 17/12 A3018 RMK A01 T01710124  RH  074%=      5-min Rain = 0
KHE1 220044Z 04008KT 17/12 A3018 RMK A01 T01700124  RH  074%=      5-min Rain = 0
KHE1 220045Z 04009KT 17/12 A3018 RMK A01 T01700123  RH  074%=      5-min Rain = 0
KHE1 220046Z 04009KT 17/12 A3018 RMK A01 T01700123  RH  074%=      5-min Rain = 0
KHE1 220047Z 04009KT 17/12 A3018 RMK A01 T01700123  RH  074%=      5-min Rain = 0
KHE1 220048Z 04008KT 17/12 A3018 RMK A01 T01700122  RH  073%=      5-min Rain = 0
KHE1 220049Z 04008KT 17/12 A3018 RMK A01 T01700122  RH  073%=      5-min Rain = 0
KHE1 220050Z 04008KT 17/12 A3018 RMK A01 T01710122  RH  073%=      5-min Rain = 0
KHE1 220051Z 04008KT 17/12 A3018 RMK A01 T01700122  RH  073%=      5-min Rain = 0
KHE1 220052Z 04009KT 17/12 A3018 RMK A01 T01700122  RH  073%=      5-min Rain = 0
KHE1 220053Z 04008KT 17/12 A3018 RMK A01 T01700122  RH  073%=      5-min Rain = 0
KHE1 220054Z 04008KT 17/12 A3018 RMK A01 T01700122  RH  073%=      5-min Rain = 0
KHE1 220055Z 04009KT 17/12 A3018 RMK A01 T01690121  RH  073%=      5-min Rain = 0
KHE1 220056Z 04009KT 17/12 A3018 RMK A01 T01690121  RH  073%=      5-min Rain = 0
KHE1 220057Z 04008KT 17/12 A3018 RMK A01 T01690121  RH  073%=      5-min Rain = 0
KHE1 220058Z 04009KT 17/12 A3018 RMK A01 T01690121  RH  073%=      5-min Rain = 0
KHE1 220059Z 05008KT 17/12 A3018 RMK A01 T01690121  RH  073%=      5-min Rain = 0
KHE1 220100Z 05009KT 17/12 A3018 RMK A01 T01690121  RH  073%=      5-min Rain = 0
KHE1 220101Z 05008KT 17/12 A3018 RMK A01 T01690121  RH  073%=      5-min Rain = 0
KHE1 220102Z 04008KT 17/12 A3018 RMK A01 T01690120  RH  073%=      5-min Rain = 0
KHE1 220103Z 04008KT 17/12 A3018 RMK A01 T01690120  RH  073%=      5-min Rain = 0
KHE1 220104Z 04008KT 17/12 A3018 RMK A01 T01690120  RH  073%=      5-min Rain = 0
KHE1 220105Z 04008KT 17/12 A3018 RMK A01 T01690120  RH  073%=      5-min Rain = 0
KHE1 220106Z 04008KT 17/12 A3018 RMK A01 T01680120  RH  073%=      5-min Rain = 0
KHE1 220107Z 04008KT 17/12 A3018 RMK A01 T01680119  RH  073%=      5-min Rain = 0
KHE1 220108Z 04008KT 17/12 A3018 RMK A01 T01680120  RH  073%=      5-min Rain = 0
KHE1 220109Z 05008KT 17/12 A3018 RMK A01 T01680119  RH  073%=      5-min Rain = 0
KHE1 220110Z 04008KT 17/12 A3018 RMK A01 T01680119  RH  073%=      5-min Rain = 0
KHE1 220111Z 05008KT 17/12 A3018 RMK A01 T01680119  RH  073%=      5-min Rain = 0
KHE1 220112Z 05007KT 17/12 A3018 RMK A01 T01690119  RH  073%=      5-min Rain = 0
KHE1 220113Z 05007KT 17/12 A3018 RMK A01 T01680119  RH  073%=      5-min Rain = 0
KHE1 220114Z 04007KT 17/12 A3018 RMK A01 T01670118  RH  073%=      5-min Rain = 0
KHE1 220115Z 04007KT 17/12 A3018 RMK A01 T01670119  RH  073%=      5-min Rain = 0
KHE1 220116Z 04007KT 17/12 A3018 RMK A01 T01660118  RH  073%=      5-min Rain = 0
KHE1 220117Z 05007KT 17/12 A3018 RMK A01 T01650118  RH  074%=      5-min Rain = 0
KHE1 220118Z 04007KT 17/12 A3018 RMK A01 T01650119  RH  074%=      5-min Rain = 0
KHE1 220119Z 04007KT 17/12 A3018 RMK A01 T01650118  RH  074%=      5-min Rain = 0
KHE1 220120Z 04007KT 17/12 A3018 RMK A01 T01650118  RH  074%=      5-min Rain = 0
KHE1 220121Z 04007KT 16/12 A3018 RMK A01 T01640118  RH  074%=      5-min Rain = 0
KHE1 220122Z 04007KT 16/12 A3018 RMK A01 T01640118  RH  074%=      5-min Rain = 0
KHE1 220123Z 05007KT 16/12 A3018 RMK A01 T01640118  RH  074%=      5-min Rain = 0
KHE1 220124Z 04007KT 16/12 A3018 RMK A01 T01630118  RH  075%=      5-min Rain = 0
KHE1 220125Z 04007KT 16/12 A3018 RMK A01 T01630118  RH  075%=      5-min Rain = 0
KHE1 220126Z 04007KT 16/12 A3018 RMK A01 T01630118  RH  075%=      5-min Rain = 0
KHE1 220127Z 04007KT 16/12 A3018 RMK A01 T01630118  RH  075%=      5-min Rain = 0
KHE1 220128Z 04007KT 16/12 A3018 RMK A01 T01620118  RH  075%=      5-min Rain = 0
KHE1 220129Z 04006KT 16/12 A3018 RMK A01 T01620118  RH  075%=      5-min Rain = 0
KHE1 220130Z 04007KT 16/12 A3018 RMK A01 T01620118  RH  075%=      5-min Rain = 0
KHE1 220131Z 04007KT 16/12 A3018 RMK A01 T01620118  RH  075%=      5-min Rain = 0
KHE1 220132Z 04007KT 16/12 A3018 RMK A01 T01620118  RH  075%=      5-min Rain = 0
KHE1 220133Z 04007KT 16/12 A3018 RMK A01 T01610118  RH  075%=      5-min Rain = 0
KHE1 220134Z 05007KT 16/12 A3018 RMK A01 T01610118  RH  075%=      5-min Rain = 0
KHE1 220135Z 05007KT 16/12 A3018 RMK A01 T01620118  RH  075%=      5-min Rain = 0
KHE1 220136Z 06007KT 16/12 A3018 RMK A01 T01620118  RH  075%=      5-min Rain = 0
KHE1 220137Z 06007KT 16/12 A3018 RMK A01 T01620118  RH  075%=      5-min Rain = 0
KHE1 220138Z 06007KT 16/12 A3018 RMK A01 T01610117  RH  075%=      5-min Rain = 0
KHE1 220139Z 06007KT 16/12 A3018 RMK A01 T01600117  RH  076%=      5-min Rain = 0
KHE1 220140Z 06007KT 16/12 A3018 RMK A01 T01600117  RH  076%=      5-min Rain = 0
KHE1 220141Z 06007KT 16/12 A3018 RMK A01 T01600118  RH  076%=      5-min Rain = 0
KHE1 220142Z 06007KT 16/12 A3018 RMK A01 T01600118  RH  076%=      5-min Rain = 0
KHE1 220143Z 06007KT 16/12 A3018 RMK A01 T01600117  RH  076%=      5-min Rain = 0
KHE1 220144Z 06007KT 16/12 A3018 RMK A01 T01600117  RH  076%=      5-min Rain = 0
KHE1 220145Z 06008KT 16/12 A3018 RMK A01 T01590117  RH  076%=      5-min Rain = 0
KHE1 220146Z 06007KT 16/12 A3018 RMK A01 T01590117  RH  076%=      5-min Rain = 0
KHE1 220147Z 05007KT 16/12 A3018 RMK A01 T01590117  RH  076%=      5-min Rain = 0
KHE1 220148Z 05007KT 16/12 A3018 RMK A01 T01590117  RH  076%=      5-min Rain = 0
KHE1 220149Z 05007KT 16/12 A3018 RMK A01 T01590117  RH  076%=      5-min Rain = 0
KHE1 220150Z 06007KT 16/12 A3018 RMK A01 T01590117  RH  076%=      5-min Rain = 0
KHE1 220151Z 06007KT 16/12 A3018 RMK A01 T01590117  RH  076%=      5-min Rain = 0
KHE1 220152Z 06007KT 16/12 A3018 RMK A01 T01590117  RH  076%=      5-min Rain = 0
KHE1 220153Z 06007KT 16/12 A3018 RMK A01 T01590117  RH  076%=      5-min Rain = 0
KHE1 220154Z 06007KT 16/12 A3018 RMK A01 T01590117  RH  076%=      5-min Rain = 0
KHE1 220155Z 06007KT 16/12 A3018 RMK A01 T01590117  RH  076%=      5-min Rain = 0
KHE1 220156Z 06006KT 16/12 A3018 RMK A01 T01590117  RH  076%=      5-min Rain = 0
KHE1 220157Z 06007KT 16/12 A3018 RMK A01 T01580117  RH  076%=      5-min Rain = 0
KHE1 220158Z 06006KT 16/12 A3018 RMK A01 T01570117  RH  077%=      5-min Rain = 0
KHE1 220159Z 06006KT 16/12 A3018 RMK A01 T01570117  RH  077%=      5-min Rain = 0
KHE1 220200Z 05006KT 16/12 A3018 RMK A01 T01570117  RH  077%=      5-min Rain = 0
KHE1 220201Z 05006KT 16/12 A3018 RMK A01 T01570117  RH  077%=      5-min Rain = 0
KHE1 220202Z 05006KT 16/12 A3018 RMK A01 T01560117  RH  077%=      5-min Rain = 0
KHE1 220203Z 06006KT 16/12 A3018 RMK A01 T01560117  RH  077%=      5-min Rain = 0
KHE1 220204Z 06006KT 16/12 A3018 RMK A01 T01550117  RH  078%=      5-min Rain = 0
KHE1 220205Z 06006KT 16/12 A3018 RMK A01 T01550117  RH  078%=      5-min Rain = 0
KHE1 220206Z 06006KT 16/12 A3018 RMK A01 T01550117  RH  078%=      5-min Rain = 0
KHE1 220207Z 06006KT 15/12 A3018 RMK A01 T01540116  RH  078%=      5-min Rain = 0
KHE1 220208Z 06006KT 15/12 A3018 RMK A01 T01540117  RH  078%=      5-min Rain = 0
KHE1 220209Z 06006KT 15/12 A3018 RMK A01 T01540117  RH  079%=      5-min Rain = 0
KHE1 220210Z 06007KT 15/12 A3018 RMK A01 T01530117  RH  079%=      5-min Rain = 0
KHE1 220211Z 06007KT 15/12 A3018 RMK A01 T01530117  RH  079%=      5-min Rain = 0
KHE1 220212Z 06007KT 15/12 A3018 RMK A01 T01530117  RH  079%=      5-min Rain = 0
KHE1 220213Z 07007KT 15/12 A3018 RMK A01 T01520116  RH  079%=      5-min Rain = 0
KHE1 220214Z 06006KT 15/12 A3018 RMK A01 T01520117  RH  079%=      5-min Rain = 0
KHE1 220215Z 06007KT 15/12 A3018 RMK A01 T01520116  RH  079%=      5-min Rain = 0
KHE1 220216Z 06006KT 15/12 A3018 RMK A01 T01530117  RH  079%=      5-min Rain = 0
KHE1 220217Z 06007KT 15/12 A3018 RMK A01 T01520117  RH  079%=      5-min Rain = 0
KHE1 220218Z 06007KT 15/12 A3018 RMK A01 T01530117  RH  079%=      5-min Rain = 0
KHE1 220219Z 06007KT 15/12 A3018 RMK A01 T01530117  RH  079%=      5-min Rain = 0
KHE1 220220Z 06007KT 15/12 A3018 RMK A01 T01530117  RH  079%=      5-min Rain = 0
KHE1 220221Z 07007KT 15/12 A3018 RMK A01 T01530117  RH  079%=      5-min Rain = 0
KHE1 220222Z 06007KT 15/12 A3018 RMK A01 T01530117  RH  079%=      5-min Rain = 0
KHE1 220223Z 06007KT 15/12 A3018 RMK A01 T01530117  RH  079%=      5-min Rain = 0
KHE1 220224Z 06007KT 15/12 A3018 RMK A01 T01520117  RH  079%=      5-min Rain = 0
KHE1 220225Z 06007KT 15/12 A3018 RMK A01 T01520117  RH  079%=      5-min Rain = 0
KHE1 220226Z 06007KT 15/12 A3018 RMK A01 T01520117  RH  079%=      5-min Rain = 0
KHE1 220227Z 06008KT 15/12 A3018 RMK A01 T01520117  RH  079%=      5-min Rain = 0
KHE1 220228Z 07008KT 15/12 A3018 RMK A01 T01520117  RH  079%=      5-min Rain = 0
KHE1 220229Z 07007KT 15/12 A3018 RMK A01 T01520117  RH  080%=      5-min Rain = 0
KHE1 220230Z 07008KT 15/12 A3018 RMK A01 T01520117  RH  080%=      5-min Rain = 0
KHE1 220231Z 06007KT 15/12 A3018 RMK A01 T01510117  RH  080%=      5-min Rain = 0
KHE1 220232Z 06007KT 15/12 A3018 RMK A01 T01510117  RH  080%=      5-min Rain = 0
KHE1 220233Z 06007KT 15/12 A3018 RMK A01 T01510117  RH  080%=      5-min Rain = 0
KHE1 220234Z 06008KT 15/12 A3018 RMK A01 T01510117  RH  080%=      5-min Rain = 0
KHE1 220235Z 06007KT 15/12 A3018 RMK A01 T01510117  RH  080%=      5-min Rain = 0
KHE1 220236Z 06008KT 15/12 A3018 RMK A01 T01510117  RH  080%=      5-min Rain = 0
KHE1 220237Z 06008KT 15/12 A3018 RMK A01 T01510116  RH  080%=      5-min Rain = 0
KHE1 220238Z 06008KT 15/12 A3018 RMK A01 T01510117  RH  080%=      5-min Rain = 0
KHE1 220239Z 06008KT 15/12 A3018 RMK A01 T01510116  RH  080%=      5-min Rain = 0
KHE1 220240Z 06008KT 15/12 A3018 RMK A01 T01510117  RH  080%=      5-min Rain = 0
KHE1 220241Z 06008KT 15/12 A3018 RMK A01 T01510117  RH  080%=      5-min Rain = 0
KHE1 220242Z 06008KT 15/12 A3018 RMK A01 T01510117  RH  080%=      5-min Rain = 0
KHE1 220243Z 06008KT 15/12 A3018 RMK A01 T01510116  RH  080%=      5-min Rain = 0
KHE1 220244Z 05008KT 15/12 A3018 RMK A01 T01510117  RH  080%=      5-min Rain = 0
KHE1 220245Z 05008KT 15/12 A3018 RMK A01 T01510117  RH  080%=      5-min Rain = 0
KHE1 220246Z 05008KT 15/12 A3018 RMK A01 T01500116  RH  080%=      5-min Rain = 0
KHE1 220247Z 05008KT 15/12 A3019 RMK A01 T01510117  RH  080%=      5-min Rain = 0
KHE1 220248Z 05008KT 15/12 A3019 RMK A01 T01510117  RH  080%=      5-min Rain = 0
KHE1 220249Z 05008KT 15/12 A3019 RMK A01 T01510117  RH  080%=      5-min Rain = 0
KHE1 220250Z 05008KT 15/12 A3019 RMK A01 T01510117  RH  080%=      5-min Rain = 0
KHE1 220251Z 05008KT 15/12 A3019 RMK A01 T01510117  RH  080%=      5-min Rain = 0
KHE1 220252Z 05008KT 15/12 A3019 RMK A01 T01510117  RH  080%=      5-min Rain = 0
KHE1 220253Z 05008KT 15/12 A3019 RMK A01 T01500117  RH  080%=      5-min Rain = 0
KHE1 220254Z 05007KT 15/12 A3019 RMK A01 T01500117  RH  081%=      5-min Rain = 0
KHE1 220255Z 05008KT 15/12 A3019 RMK A01 T01500117  RH  081%=      5-min Rain = 0
KHE1 220256Z 05008KT 15/12 A3019 RMK A01 T01490117  RH  081%=      5-min Rain = 0
KHE1 220257Z 05008KT 15/12 A3019 RMK A01 T01490117  RH  081%=      5-min Rain = 0
KHE1 220258Z 05008KT 15/12 A3019 RMK A01 T01490117  RH  081%=      5-min Rain = 0
KHE1 220259Z 05008KT 15/12 A3019 RMK A01 T01480117  RH  081%=      5-min Rain = 0
KHE1 220300Z 05008KT 15/12 A3019 RMK A01 T01480116  RH  082%=      5-min Rain = 0
KHE1 220301Z 05008KT 15/12 A3019 RMK A01 T01480117  RH  082%=      5-min Rain = 0
KHE1 220302Z 05008KT 15/12 A3019 RMK A01 T01480117  RH  082%=      5-min Rain = 0
KHE1 220303Z 05008KT 15/12 A3019 RMK A01 T01470117  RH  082%=      5-min Rain = 0
KHE1 220304Z 05008KT 15/12 A3019 RMK A01 T01470117  RH  082%=      5-min Rain = 0
KHE1 220305Z 05008KT 15/12 A302 RMK A01 T01470117  RH  082%=      5-min Rain = 0
KHE1 220306Z 05007KT 15/12 A302 RMK A01 T01470117  RH  082%=      5-min Rain = 0
KHE1 220307Z 05008KT 15/12 A302 RMK A01 T01470117  RH  082%=      5-min Rain = 0
KHE1 220308Z 05008KT 15/12 A302 RMK A01 T01480117  RH  082%=      5-min Rain = 0
KHE1 220309Z 05007KT 15/12 A302 RMK A01 T01480117  RH  081%=      5-min Rain = 0
KHE1 220310Z 05008KT 15/12 A302 RMK A01 T01480117  RH  082%=      5-min Rain = 0
KHE1 220311Z 05007KT 15/12 A302 RMK A01 T01480117  RH  082%=      5-min Rain = 0
KHE1 220312Z 05007KT 15/12 A302 RMK A01 T01480117  RH  082%=      5-min Rain = 0
KHE1 220313Z 05006KT 15/12 A302 RMK A01 T01480117  RH  081%=      5-min Rain = 0
KHE1 220314Z 04006KT 15/12 A302 RMK A01 T01470116  RH  082%=      5-min Rain = 0
KHE1 220315Z 04006KT 15/12 A302 RMK A01 T01470116  RH  082%=      5-min Rain = 0
KHE1 220316Z 03006KT 15/12 A302 RMK A01 T01470116  RH  082%=      5-min Rain = 0
KHE1 220317Z 03006KT 15/12 A302 RMK A01 T01460116  RH  082%=      5-min Rain = 0
KHE1 220318Z 03006KT 15/12 A302 RMK A01 T01460115  RH  082%=      5-min Rain = 0
KHE1 220319Z 03006KT 15/12 A302 RMK A01 T01450115  RH  082%=      5-min Rain = 0
KHE1 220320Z 03006KT 14/12 A302 RMK A01 T01440115  RH  082%=      5-min Rain = 0
KHE1 220321Z 03006KT 14/11 A302 RMK A01 T01440114  RH  082%=      5-min Rain = 0
KHE1 220322Z 04006KT 14/11 A302 RMK A01 T01430114  RH  083%=      5-min Rain = 0
KHE1 220323Z 03006KT 14/11 A302 RMK A01 T01420114  RH  083%=      5-min Rain = 0
KHE1 220324Z 03007KT 14/11 A302 RMK A01 T01410114  RH  083%=      5-min Rain = 0
KHE1 220325Z 04007KT 14/11 A302 RMK A01 T01410114  RH  084%=      5-min Rain = 0
KHE1 220326Z 03007KT 14/11 A302 RMK A01 T01410114  RH  084%=      5-min Rain = 0
KHE1 220327Z 04007KT 14/11 A302 RMK A01 T01410114  RH  084%=      5-min Rain = 0
KHE1 220328Z 03007KT 14/11 A302 RMK A01 T01410114  RH  084%=      5-min Rain = 0
KHE1 220329Z 03007KT 14/12 A302 RMK A01 T01410115  RH  084%=      5-min Rain = 0
KHE1 220330Z 03007KT 14/11 A302 RMK A01 T01410114  RH  084%=      5-min Rain = 0
KHE1 220331Z 04008KT 14/11 A302 RMK A01 T01410114  RH  084%=      5-min Rain = 0
KHE1 220332Z 04008KT 14/12 A302 RMK A01 T01420115  RH  084%=      5-min Rain = 0
KHE1 220333Z 04008KT 14/12 A302 RMK A01 T01420115  RH  084%=      5-min Rain = 0
KHE1 220334Z 04009KT 14/12 A302 RMK A01 T01420115  RH  084%=      5-min Rain = 0
KHE1 220335Z 04009KT 14/12 A302 RMK A01 T01430116  RH  084%=      5-min Rain = 0
KHE1 220336Z 04008KT 14/12 A302 RMK A01 T01440116  RH  083%=      5-min Rain = 0
KHE1 220337Z 03009KT 15/12 A302 RMK A01 T01450116  RH  083%=      5-min Rain = 0
KHE1 220338Z 04009KT 15/12 A302 RMK A01 T01450116  RH  083%=      5-min Rain = 0
KHE1 220339Z 04009KT 15/12 A302 RMK A01 T01450117  RH  083%=      5-min Rain = 0
KHE1 220340Z 04010KT 15/12 A302 RMK A01 T01450117  RH  083%=      5-min Rain = 0
KHE1 220341Z 04009KT 15/12 A302 RMK A01 T01460117  RH  083%=      5-min Rain = 0
KHE1 220342Z 04009KT 15/12 A302 RMK A01 T01460117  RH  082%=      5-min Rain = 0
KHE1 220343Z 04010KT 15/12 A302 RMK A01 T01470117  RH  082%=      5-min Rain = 0
KHE1 220344Z 04010KT 15/12 A302 RMK A01 T01480117  RH  082%=      5-min Rain = 0
KHE1 220345Z 04010KT 15/12 A302 RMK A01 T01480117  RH  082%=      5-min Rain = 0
KHE1 220346Z 04010KT 15/12 A302 RMK A01 T01480117  RH  082%=      5-min Rain = 0
KHE1 220347Z 04010KT 15/12 A302 RMK A01 T01480117  RH  082%=      5-min Rain = 0
KHE1 220348Z 04009KT 15/12 A302 RMK A01 T01480117  RH  081%=      5-min Rain = 0
KHE1 220349Z 04010KT 15/12 A302 RMK A01 T01480117  RH  081%=      5-min Rain = 0
KHE1 220350Z 04009KT 15/12 A302 RMK A01 T01480117  RH  081%=      5-min Rain = 0
KHE1 220351Z 04009KT 15/12 A302 RMK A01 T01480117  RH  082%=      5-min Rain = 0
KHE1 220352Z 04008KT 15/12 A302 RMK A01 T01470116  RH  082%=      5-min Rain = 0
KHE1 220353Z 04008KT 15/12 A302 RMK A01 T01470117  RH  082%=      5-min Rain = 0
KHE1 220354Z 04009KT 15/12 A302 RMK A01 T01460117  RH  082%=      5-min Rain = 0
KHE1 220355Z 04009KT 15/12 A302 RMK A01 T01460116  RH  082%=      5-min Rain = 0
KHE1 220356Z 04009KT 15/12 A302 RMK A01 T01460116  RH  082%=      5-min Rain = 0
KHE1 220357Z 04010KT 15/12 A302 RMK A01 T01460116  RH  082%=      5-min Rain = 0
KHE1 220358Z 04008KT 15/12 A302 RMK A01 T01460116  RH  082%=      5-min Rain = 0
KHE1 220359Z 04008KT 15/12 A302 RMK A01 T01460116  RH  082%=      5-min Rain = 0
KHE1 220400Z 04008KT 15/12 A302 RMK A01 T01450116  RH  082%=      5-min Rain = 0
KHE1 220401Z 05008KT 15/12 A302 RMK A01 T01450116  RH  083%=      5-min Rain = 0
KHE1 220402Z 05008KT 15/12 A302 RMK A01 T01450116  RH  083%=      5-min Rain = 0
KHE1 220403Z 05008KT 15/12 A302 RMK A01 T01450116  RH  083%=      5-min Rain = 0
KHE1 220404Z 05008KT 14/12 A302 RMK A01 T01440115  RH  083%=      5-min Rain = 0
KHE1 220405Z 05008KT 14/12 A302 RMK A01 T01440116  RH  083%=      5-min Rain = 0
KHE1 220406Z 04007KT 14/12 A302 RMK A01 T01430115  RH  083%=      5-min Rain = 0
KHE1 220407Z 04008KT 14/12 A302 RMK A01 T01430115  RH  084%=      5-min Rain = 0
KHE1 220408Z 04007KT 14/12 A302 RMK A01 T01420115  RH  084%=      5-min Rain = 0
KHE1 220409Z 04008KT 14/12 A302 RMK A01 T01420115  RH  084%=      5-min Rain = 0
KHE1 220410Z 04007KT 14/12 A302 RMK A01 T01410115  RH  084%=      5-min Rain = 0
KHE1 220411Z 04007KT 14/12 A302 RMK A01 T01410115  RH  084%=      5-min Rain = 0
KHE1 220412Z 04008KT 14/12 A302 RMK A01 T01400115  RH  085%=      5-min Rain = 0
KHE1 220413Z 04008KT 14/12 A302 RMK A01 T01400115  RH  085%=      5-min Rain = 0
KHE1 220414Z 04007KT 14/12 A302 RMK A01 T01400115  RH  085%=      5-min Rain = 0
KHE1 220415Z 04009KT 14/12 A302 RMK A01 T01400115  RH  085%=      5-min Rain = 0
KHE1 220416Z 05008KT 14/12 A302 RMK A01 T01400115  RH  085%=      5-min Rain = 0
KHE1 220417Z 05008KT 14/11 A302 RMK A01 T01400114  RH  085%=      5-min Rain = 0
KHE1 220418Z 05009KT 14/11 A302 RMK A01 T01400114  RH  084%=      5-min Rain = 0
KHE1 220419Z 05009KT 14/11 A302 RMK A01 T01400114  RH  084%=      5-min Rain = 0
KHE1 220420Z 05008KT 14/11 A302 RMK A01 T01400114  RH  084%=      5-min Rain = 0
KHE1 220421Z 06010KT 14/11 A302 RMK A01 T01400114  RH  084%=      5-min Rain = 0
KHE1 220422Z 05009KT 14/11 A302 RMK A01 T01400113  RH  084%=      5-min Rain = 0
KHE1 220423Z 05009KT 14/11 A302 RMK A01 T01400113  RH  084%=      5-min Rain = 0
KHE1 220424Z 05009KT 14/11 A302 RMK A01 T01400113  RH  084%=      5-min Rain = 0
KHE1 220425Z 05009KT 14/11 A302 RMK A01 T01390113  RH  084%=      5-min Rain = 0
KHE1 220426Z 05009KT 14/11 A302 RMK A01 T01390113  RH  084%=      5-min Rain = 0
KHE1 220427Z 05009KT 14/11 A302 RMK A01 T01380113  RH  085%=      5-min Rain = 0
KHE1 220428Z 05009KT 14/11 A302 RMK A01 T01380113  RH  085%=      5-min Rain = 0
KHE1 220429Z 05009KT 14/11 A302 RMK A01 T01380112  RH  085%=      5-min Rain = 0
KHE1 220430Z 05009KT 14/11 A302 RMK A01 T01380112  RH  085%=      5-min Rain = 0
KHE1 220431Z 05009KT 14/11 A302 RMK A01 T01380112  RH  085%=      5-min Rain = 0
KHE1 220432Z 05008KT 14/11 A302 RMK A01 T01370112  RH  085%=      5-min Rain = 0
KHE1 220433Z 05008KT 14/11 A302 RMK A01 T01370111  RH  085%=      5-min Rain = 0
KHE1 220434Z 05008KT 14/11 A302 RMK A01 T01370112  RH  085%=      5-min Rain = 0
KHE1 220435Z 05009KT 14/11 A302 RMK A01 T01360111  RH  085%=      5-min Rain = 0
KHE1 220436Z 05010KT 14/11 A302 RMK A01 T01360111  RH  085%=      5-min Rain = 0
KHE1 220437Z 05009KT 14/11 A302 RMK A01 T01360111  RH  085%=      5-min Rain = 0
KHE1 220438Z 06009KT 14/11 A302 RMK A01 T01360111  RH  085%=      5-min Rain = 0
KHE1 220439Z 05008KT 14/11 A302 RMK A01 T01350111  RH  085%=      5-min Rain = 0
KHE1 220440Z 05008KT 14/11 A302 RMK A01 T01350110  RH  085%=      5-min Rain = 0
KHE1 220441Z 05008KT 14/11 A302 RMK A01 T01350110  RH  085%=      5-min Rain = 0
KHE1 220442Z 05009KT 13/11 A302 RMK A01 T01340110  RH  085%=      5-min Rain = 0
KHE1 220443Z 05009KT 13/11 A302 RMK A01 T01340110  RH  085%=      5-min Rain = 0
KHE1 220444Z 05009KT 13/11 A302 RMK A01 T01340110  RH  085%=      5-min Rain = 0
KHE1 220445Z 05008KT 13/11 A302 RMK A01 T01340110  RH  085%=      5-min Rain = 0
KHE1 220446Z 04008KT 13/11 A302 RMK A01 T01330110  RH  085%=      5-min Rain = 0
KHE1 220447Z 04008KT 13/11 A302 RMK A01 T01330109  RH  086%=      5-min Rain = 0
KHE1 220448Z 04008KT 13/11 A302 RMK A01 T01320109  RH  086%=      5-min Rain = 0
KHE1 220449Z 04008KT 13/11 A302 RMK A01 T01320109  RH  086%=      5-min Rain = 0
KHE1 220450Z 04008KT 13/11 A3021 RMK A01 T01320109  RH  086%=      5-min Rain = 0
KHE1 220451Z 04008KT 13/11 A3021 RMK A01 T01320109  RH  086%=      5-min Rain = 0
KHE1 220452Z 03008KT 13/11 A3021 RMK A01 T01320109  RH  086%=      5-min Rain = 0
KHE1 220453Z 03008KT 13/11 A3021 RMK A01 T01320109  RH  086%=      5-min Rain = 0
KHE1 220454Z 03007KT 13/11 A3021 RMK A01 T01320108  RH  086%=      5-min Rain = 0
KHE1 220455Z 03006KT 13/11 A3021 RMK A01 T01320108  RH  086%=      5-min Rain = 0
KHE1 220456Z 03007KT 13/11 A3021 RMK A01 T01310108  RH  086%=      5-min Rain = 0
KHE1 220457Z 03006KT 13/11 A3021 RMK A01 T01300108  RH  086%=      5-min Rain = 0
KHE1 220458Z 03006KT 13/11 A3021 RMK A01 T01290107  RH  086%=      5-min Rain = 0
KHE1 220459Z 03007KT 13/11 A3021 RMK A01 T01290107  RH  087%=      5-min Rain = 0
KHE1 220500Z 04006KT 13/11 A3021 RMK A01 T01280107  RH  087%=      5-min Rain = 0
KHE1 220501Z 03006KT 13/11 A3021 RMK A01 T01270107  RH  087%=      5-min Rain = 0
KHE1 220502Z 03007KT 13/11 A3021 RMK A01 T01270107  RH  087%=      5-min Rain = 0
KHE1 220503Z 03007KT 13/11 A3021 RMK A01 T01260106  RH  088%=      5-min Rain = 0
KHE1 220504Z 03007KT 13/11 A3021 RMK A01 T01260106  RH  088%=      5-min Rain = 0
KHE1 220505Z 03008KT 13/11 A3021 RMK A01 T01260106  RH  088%=      5-min Rain = 0
KHE1 220506Z 03008KT 13/11 A3021 RMK A01 T01260107  RH  088%=      5-min Rain = 0
KHE1 220507Z 03009KT 13/11 A3021 RMK A01 T01260107  RH  088%=      5-min Rain = 0
KHE1 220508Z 03008KT 13/11 A3021 RMK A01 T01270107  RH  088%=      5-min Rain = 0
KHE1 220509Z 04008KT 13/11 A3021 RMK A01 T01260107  RH  088%=      5-min Rain = 0
KHE1 220510Z 04007KT 13/11 A3021 RMK A01 T01260107  RH  088%=      5-min Rain = 0
KHE1 220511Z 04007KT 13/11 A3021 RMK A01 T01260107  RH  088%=      5-min Rain = 0
KHE1 220512Z 04008KT 13/11 A3021 RMK A01 T01260106  RH  088%=      5-min Rain = 0
KHE1 220513Z 04008KT 13/11 A3021 RMK A01 T01250107  RH  088%=      5-min Rain = 0
KHE1 220514Z 04008KT 13/11 A3021 RMK A01 T01250106  RH  088%=      5-min Rain = 0
KHE1 220515Z 04008KT 13/11 A3021 RMK A01 T01260107  RH  088%=      5-min Rain = 0
KHE1 220516Z 04009KT 13/11 A3021 RMK A01 T01250107  RH  088%=      5-min Rain = 0
KHE1 220517Z 04009KT 13/11 A3021 RMK A01 T01260107  RH  088%=      5-min Rain = 0
KHE1 220518Z 04009KT 13/11 A3021 RMK A01 T01250107  RH  088%=      5-min Rain = 0
KHE1 220519Z 04008KT 13/11 A3021 RMK A01 T01260107  RH  088%=      5-min Rain = 0
KHE1 220520Z 04009KT 13/11 A3021 RMK A01 T01250106  RH  088%=      5-min Rain = 0
KHE1 220521Z 04009KT 13/11 A3021 RMK A01 T01250106  RH  089%=      5-min Rain = 0
KHE1 220522Z 04008KT 12/11 A3021 RMK A01 T01240106  RH  089%=      5-min Rain = 0
KHE1 220523Z 04009KT 12/11 A3021 RMK A01 T01240106  RH  089%=      5-min Rain = 0
KHE1 220524Z 04009KT 12/11 A3021 RMK A01 T01240106  RH  089%=      5-min Rain = 0
KHE1 220525Z 04008KT 12/11 A3021 RMK A01 T01240106  RH  089%=      5-min Rain = 0
KHE1 220526Z 04009KT 12/11 A3021 RMK A01 T01240106  RH  089%=      5-min Rain = 0
KHE1 220527Z 04009KT 12/11 A3021 RMK A01 T01240107  RH  089%=      5-min Rain = 0
KHE1 220528Z 03009KT 12/11 A3021 RMK A01 T01240106  RH  089%=      5-min Rain = 0
KHE1 220529Z 03010KT 12/11 A3021 RMK A01 T01240106  RH  089%=      5-min Rain = 0
KHE1 220530Z 03009KT 12/11 A3021 RMK A01 T01240106  RH  089%=      5-min Rain = 0
KHE1 220531Z 03008KT 12/11 A3021 RMK A01 T01230106  RH  089%=      5-min Rain = 0
KHE1 220532Z 03008KT 12/11 A3021 RMK A01 T01230105  RH  089%=      5-min Rain = 0
KHE1 220533Z 03008KT 12/11 A3021 RMK A01 T01220105  RH  089%=      5-min Rain = 0
KHE1 220534Z 03007KT 12/11 A3021 RMK A01 T01220105  RH  089%=      5-min Rain = 0
KHE1 220535Z 02007KT 12/11 A3021 RMK A01 T01210105  RH  090%=      5-min Rain = 0
KHE1 220536Z 03007KT 12/10 A3021 RMK A01 T01200104  RH  090%=      5-min Rain = 0
KHE1 220537Z 03008KT 12/10 A3021 RMK A01 T01190104  RH  090%=      5-min Rain = 0
KHE1 220538Z 02010KT 12/10 A3021 RMK A01 T01190104  RH  091%=      5-min Rain = 0
KHE1 220539Z 03010KT 12/10 A3021 RMK A01 T01190104  RH  091%=      5-min Rain = 0
KHE1 220540Z 02009KT 12/11 A3021 RMK A01 T01190105  RH  091%=      5-min Rain = 0
KHE1 220541Z 02009KT 12/10 A3021 RMK A01 T01190104  RH  091%=      5-min Rain = 0
KHE1 220542Z 03008KT 12/10 A3021 RMK A01 T01180104  RH  091%=      5-min Rain = 0
KHE1 220543Z 03010KT 12/10 A3021 RMK A01 T01180104  RH  091%=      5-min Rain = 0
KHE1 220544Z 02009KT 12/10 A3021 RMK A01 T01180104  RH  091%=      5-min Rain = 0
KHE1 220545Z 03008KT 12/10 A3021 RMK A01 T01180104  RH  091%=      5-min Rain = 0
KHE1 220546Z 03008KT 12/10 A3021 RMK A01 T01170103  RH  091%=      5-min Rain = 0
KHE1 220547Z 03008KT 12/10 A3021 RMK A01 T01170104  RH  092%=      5-min Rain = 0
KHE1 220548Z 03008KT 12/10 A3021 RMK A01 T01170104  RH  092%=      5-min Rain = 0
KHE1 220549Z 03008KT 12/10 A3021 RMK A01 T01170104  RH  092%=      5-min Rain = 0
KHE1 220550Z 03008KT 12/10 A3021 RMK A01 T01170104  RH  092%=      5-min Rain = 0
KHE1 220551Z 03007KT 12/10 A3021 RMK A01 T01170104  RH  092%=      5-min Rain = 0
KHE1 220552Z 03007KT 12/10 A3021 RMK A01 T01160103  RH  092%=      5-min Rain = 0
KHE1 220553Z 03008KT 12/10 A3021 RMK A01 T01160103  RH  092%=      5-min Rain = 0
KHE1 220554Z 03008KT 12/10 A3021 RMK A01 T01150103  RH  092%=      5-min Rain = 0
KHE1 220555Z 03008KT 12/10 A3021 RMK A01 T01160103  RH  092%=      5-min Rain = 0
KHE1 220556Z 03008KT 12/10 A3021 RMK A01 T01150103  RH  092%=      5-min Rain = 0
KHE1 220557Z 03009KT 12/10 A3021 RMK A01 T01160103  RH  092%=      5-min Rain = 0
KHE1 220558Z 03008KT 12/10 A3021 RMK A01 T01150103  RH  092%=      5-min Rain = 0
KHE1 220559Z 03008KT 12/10 A3021 RMK A01 T01150103  RH  092%=      5-min Rain = 0

Page generated in 0.2228 seconds.